GFSSW_850_thetae_030.txt.gz
Theta_e
303 303 303 303 303 304 304 305 306 308 310 313 316 316 313 311 311 310 313 317 318 317 316 330 329 341 348 351 352 352 356 359 355 351 351 345 352 351 349 351 352 353 350 350 350
302 302 302 302 302 303 304 304 304 304 306 309 313 316 316 313 312 313 318 318 318 318 316 331 332 340 347 348 348 350 353 351 350 347 348 347 345 348 348 349 351 352 350 350 349
302 302 303 303 303 303 303 304 304 305 305 307 311 314 315 314 315 319 322 320 318 318 320 330 333 339 344 345 345 346 352 346 345 346 345 346 344 347 346 349 352 351 350 350 349
302 302 302 302 303 303 303 304 304 305 305 310 312 313 313 313 325 327 321 321 320 318 320 327 335 339 345 344 343 346 347 344 345 346 342 348 344 345 345 347 351 352 350 350 349
302 302 303 303 303 303 304 304 305 305 306 309 313 313 313 318 318 322 320 320 319 318 323 326 334 340 345 343 343 344 348 346 342 345 341 345 347 345 345 346 349 351 350 350 349
302 303 303 303 303 304 304 304 305 305 307 310 315 314 312 321 324 323 323 319 321 320 324 325 332 338 342 342 342 342 343 345 345 346 342 340 346 345 346 344 348 350 350 349 349
302 302 302 303 303 304 304 305 305 306 307 311 314 317 317 321 325 321 323 325 323 323 323 325 329 334 340 343 341 340 342 343 344 344 342 340 340 344 346 345 345 349 350 349 349
302 302 302 303 303 304 304 304 305 308 312 310 314 315 320 326 325 322 318 323 325 327 325 325 329 332 336 339 341 340 340 344 344 344 341 339 340 347 345 346 346 348 349 349 349
302 302 302 302 303 303 304 308 311 313 315 314 319 319 325 326 325 324 320 321 326 330 329 327 329 330 333 339 341 339 341 342 344 343 341 339 340 340 347 347 349 347 348 349 349
302 302 302 302 302 306 309 312 314 316 324 320 323 324 323 326 326 325 324 322 326 330 331 331 332 332 333 337 343 340 340 339 343 343 340 340 340 342 344 348 349 350 347 348 348
302 302 302 302 303 309 312 312 312 321 314 320 326 323 325 327 325 323 324 321 327 331 335 334 335 335 333 335 337 339 338 336 338 339 341 340 342 344 344 344 350 350 350 348 348
302 302 302 302 305 309 312 312 310 309 311 311 313 314 320 325 326 324 323 323 328 334 335 336 337 334 333 334 335 337 338 336 335 337 338 341 340 342 345 343 345 349 350 350 348
302 302 302 303 307 310 312 311 309 310 311 311 312 314 315 318 322 326 323 323 328 333 337 337 335 334 334 335 333 336 337 336 336 336 338 340 341 341 344 344 343 347 349 350 350
302 302 302 302 308 311 311 308 308 309 312 314 317 317 315 316 320 326 323 323 329 331 337 336 334 333 334 334 334 333 335 334 335 336 337 337 339 344 342 342 343 343 348 350 351
302 302 302 307 307 311 308 307 308 310 315 322 321 321 319 317 322 322 326 323 330 329 333 337 333 332 330 332 330 329 329 331 332 334 335 336 338 338 343 342 342 345 347 349 350
302 302 305 308 310 309 307 307 309 313 314 321 322 322 322 319 319 324 326 323 327 328 330 334 333 331 329 328 328 328 328 328 329 331 336 335 337 340 341 344 342 343 343 348 349
303 304 307 308 308 307 307 308 310 312 314 317 318 318 320 323 320 321 327 328 326 328 332 332 334 333 329 329 328 327 327 329 329 330 331 333 335 339 339 342 342 341 341 344 348
303 306 309 309 307 307 307 310 310 311 313 313 314 315 319 322 324 322 325 329 324 326 329 330 331 332 329 329 329 328 328 329 332 331 328 330 333 336 337 338 340 340 340 342 345
305 310 311 309 307 308 309 311 311 312 311 310 312 315 319 321 321 325 325 328 326 325 330 330 331 330 330 329 330 329 329 329 329 329 329 329 330 332 335 337 338 338 340 341 343
307 310 312 309 307 309 311 310 310 310 309 309 311 311 313 314 317 320 326 327 328 325 326 329 331 330 330 330 329 330 330 329 330 332 333 331 335 333 335 337 338 340 338 340 341
310 311 310 309 308 309 310 309 309 308 309 310 309 309 311 315 315 319 323 327 325 328 327 326 330 330 331 330 330 330 331 329 329 330 331 334 332 337 338 338 340 339 338 339 342
310 313 310 308 310 309 309 308 308 309 309 309 309 309 312 313 315 317 323 324 321 322 327 327 326 331 333 331 330 329 331 332 332 335 332 334 334 335 338 338 339 338 337 338 339
310 312 310 308 310 309 308 308 307 309 309 308 308 310 310 310 313 316 317 318 319 321 324 326 330 332 333 333 332 331 330 331 331 331 336 333 332 334 335 338 338 338 339 338 339
310 312 310 308 308 309 308 307 308 308 309 308 308 309 310 310 310 314 315 317 317 319 321 322 328 333 335 335 334 333 330 331 331 333 332 332 334 334 334 334 338 338 337 337 340
310 310 309 310 309 309 308 309 309 309 308 307 308 309 309 309 310 311 313 313 316 319 321 326 331 331 331 333 333 331 330 331 332 334 334 333 333 336 337 337 338 337 337 338 340
307 309 308 308 309 309 309 309 309 308 306 306 308 309 308 307 309 311 311 312 315 315 317 322 328 331 333 333 333 333 331 330 330 330 332 332 333 335 337 335 337 336 334 334 335
306 304 305 307 309 310 310 309 307 308 307 306 308 307 307 308 308 308 308 309 311 313 316 320 325 329 333 333 333 335 333 332 331 331 331 334 335 336 337 337 336 333 333 332 333

GFSSW_850_thetae_033.txt.gz
Theta_e
303 303 303 303 303 303 304 304 304 304 305 305 307 314 318 317 313 312 313 317 316 317 321 327 321 332 345 352 353 353 352 349 354 352 348 347 351 351 353 352 351 351 350 349 347
303 303 303 303 303 304 304 304 304 304 304 305 306 310 315 318 317 315 316 317 316 317 317 321 329 329 343 349 352 351 354 353 350 347 348 347 348 350 353 351 352 351 350 348 348
303 303 303 303 304 304 304 304 304 305 305 305 306 311 313 315 316 318 319 318 318 318 318 318 329 330 339 346 348 351 352 349 346 345 346 347 347 347 352 352 351 351 351 349 350
303 303 303 303 304 304 304 304 305 305 305 306 307 311 312 314 322 325 320 322 319 318 317 319 326 331 337 344 346 348 347 347 344 343 344 345 344 345 349 352 351 350 350 350 349
303 303 303 303 304 304 304 305 305 305 305 306 308 313 311 313 319 326 322 320 320 318 318 319 323 331 334 341 343 344 347 343 343 344 343 344 344 345 351 351 350 349 349 349 348
303 303 303 303 304 304 304 305 305 305 305 309 308 313 313 317 323 325 321 321 319 319 318 319 324 330 336 339 343 342 345 343 345 343 343 342 341 345 352 351 350 350 350 349 349
303 303 303 303 304 304 305 305 307 309 309 311 312 311 316 315 323 325 323 322 320 319 318 320 325 327 335 340 342 342 343 347 345 344 345 345 347 345 352 351 350 351 349 348 349
303 303 303 303 304 305 307 311 312 313 314 314 315 314 318 314 323 324 324 325 323 321 319 320 324 325 327 336 340 342 341 343 345 344 345 345 348 346 350 352 350 350 350 349 348
303 303 303 303 303 307 311 312 312 311 316 321 318 319 321 322 323 324 322 325 325 324 324 322 324 325 326 332 335 338 342 339 339 340 343 339 343 344 346 349 351 350 350 350 350
303 303 303 303 304 308 312 313 310 321 318 320 322 321 319 320 326 326 320 320 324 325 327 325 326 325 327 329 335 339 339 337 338 339 341 340 337 344 345 347 348 348 350 350 349
303 303 303 303 304 310 312 312 309 312 311 309 310 317 314 323 326 326 325 323 321 326 329 329 328 328 328 329 331 337 339 338 337 338 340 340 337 346 348 350 349 345 348 349 349
303 303 302 304 305 311 313 309 308 308 308 309 310 311 312 319 316 324 326 325 321 326 328 330 331 330 330 329 330 333 337 338 336 335 337 340 338 348 345 344 345 345 346 348 349
303 303 302 303 307 312 312 308 307 308 308 309 311 310 312 312 314 317 324 325 321 324 328 332 333 333 334 331 330 331 334 335 336 334 333 336 340 347 346 343 343 340 344 348 348
304 303 303 304 308 309 309 307 307 308 308 312 314 315 315 313 315 319 322 325 324 323 329 332 332 334 333 333 331 331 332 335 336 335 334 333 341 338 344 343 341 343 348 349 347
307 304 303 307 308 310 308 307 307 309 311 315 315 316 313 314 317 317 324 322 324 324 328 332 334 334 334 333 332 333 331 333 334 334 330 332 335 338 341 344 343 344 349 348 347
309 306 304 307 308 308 307 307 308 309 312 313 312 312 312 313 317 317 319 322 324 324 326 330 335 334 334 332 333 332 332 328 331 331 330 329 330 332 339 340 343 345 349 349 349
309 307 307 308 307 308 308 308 308 309 312 313 311 310 310 314 317 318 318 322 323 322 324 329 330 334 332 332 330 330 327 325 325 328 328 325 329 329 334 339 338 344 347 346 345
309 309 309 310 309 309 308 309 310 311 311 311 310 310 311 312 313 314 318 320 325 322 326 329 329 330 333 329 327 327 326 321 324 325 325 324 327 329 331 333 338 341 345 342 345
310 311 311 312 310 309 308 310 309 310 310 309 308 309 310 311 311 313 316 320 323 323 324 327 328 329 331 331 328 325 325 323 323 326 324 324 324 325 327 329 330 337 341 346 349
309 313 311 310 309 309 309 310 309 309 309 309 308 309 309 311 312 313 314 320 320 319 322 323 324 329 331 331 328 326 324 323 323 325 326 326 326 326 325 327 329 331 336 343 350
310 312 311 309 309 309 309 309 308 308 308 308 309 308 308 311 312 311 314 316 318 317 318 320 322 322 328 331 331 325 326 324 323 323 324 329 328 328 326 327 330 330 335 339 345
309 312 312 310 309 310 308 308 308 307 309 309 309 307 308 309 310 310 314 315 314 315 316 320 321 323 324 328 329 327 326 325 325 324 324 324 327 330 330 329 330 331 335 339 342
309 311 312 310 309 309 309 308 308 309 309 308 308 307 308 310 312 312 313 313 312 313 313 318 321 325 323 323 325 327 326 326 324 325 326 325 327 332 332 329 333 332 334 336 342
310 311 310 309 309 309 309 308 309 308 309 308 307 307 309 310 309 311 311 311 311 312 314 316 320 323 326 325 326 328 328 326 326 327 327 327 328 332 333 335 335 335 338 335 342
308 310 309 309 309 308 310 309 309 309 309 308 307 308 307 308 307 310 310 310 309 310 312 312 319 324 328 328 329 330 328 328 327 326 328 326 331 334 336 336 337 339 339 339 339
308 306 305 305 307 308 310 310 310 310 308 307 307 307 307 307 308 308 309 309 310 310 310 310 317 323 331 330 329 331 329 329 328 328 328 327 327 331 335 336 335 335 336 338 342
307 306 304 306 307 308 309 310 310 309 309 308 307 306 308 308 308 308 307 307 308 309 309 311 315 320 330 331 333 334 332 329 329 328 328 329 328 334 335 333 332 334 332 333 332

GFSSW_850_thetae_036.txt.gz
Theta_e
303 303 304 304 304 304 303 303 304 304 305 305 306 306 309 316 320 317 314 317 316 316 321 317 327 337 349 352 353 352 344 348 344 351 348 348 350 352 352 350 350 351 349 342 339
303 303 303 303 304 304 304 304 304 304 305 305 305 306 310 313 318 320 320 316 316 314 317 320 322 337 346 350 353 352 346 346 343 348 348 350 349 349 351 351 351 350 347 340 335
303 303 303 303 304 304 304 304 304 305 305 305 306 306 309 312 317 324 320 317 315 315 316 321 324 326 332 345 350 350 352 349 348 347 346 347 348 352 352 353 351 349 345 340 336
303 303 304 304 304 304 304 304 304 304 305 305 307 307 311 312 323 323 320 322 316 315 316 317 328 327 329 338 344 348 351 350 347 346 345 345 349 352 351 351 350 347 346 342 344
304 304 304 304 304 305 305 305 306 308 309 308 306 309 313 311 314 324 321 320 319 316 317 317 321 323 329 335 340 345 346 348 348 346 343 344 344 343 349 351 350 348 347 346 345
304 304 304 304 304 305 307 310 311 312 312 312 311 312 312 313 318 321 322 322 320 316 317 317 321 326 328 331 338 342 343 344 345 343 342 343 342 346 351 350 349 348 348 348 347
304 304 304 304 305 305 310 312 312 310 311 311 313 314 314 311 316 324 323 322 320 319 317 317 323 324 326 331 333 335 341 342 344 343 343 342 344 353 351 350 350 349 349 348 348
304 304 304 304 305 306 311 312 311 313 316 317 320 317 314 312 315 317 323 323 325 320 319 319 319 322 323 327 326 337 338 344 344 344 343 344 348 352 350 349 349 349 348 348 348
305 305 305 304 305 307 312 311 309 313 314 309 320 322 318 316 319 323 322 323 326 321 319 318 318 320 323 322 323 330 336 340 342 344 344 345 345 352 350 350 349 349 348 348 348
307 306 307 305 304 309 312 309 307 310 315 310 320 319 317 317 322 323 324 323 325 321 320 319 319 318 321 320 326 331 336 337 339 338 343 345 343 351 350 350 350 349 348 348 348
308 307 306 306 305 311 311 308 307 307 306 306 307 311 310 309 309 320 322 324 326 322 321 321 320 321 321 322 325 330 333 337 336 336 336 339 348 353 350 349 350 349 349 348 348
308 308 307 306 305 311 311 307 307 306 306 309 310 309 309 311 309 317 319 323 322 323 322 325 324 322 324 323 325 328 330 335 337 337 333 336 347 351 350 350 350 350 350 349 349
308 309 308 307 306 308 307 307 307 307 305 308 311 312 312 311 310 312 314 321 321 320 323 327 328 327 327 327 327 327 328 330 335 335 332 335 347 347 348 349 349 349 349 349 349
308 309 309 307 307 306 306 307 308 307 304 309 312 312 310 312 312 314 314 316 323 320 321 324 328 328 329 329 328 327 328 329 332 333 335 331 345 349 349 348 345 345 346 348 348
307 308 309 306 306 307 307 308 309 308 308 313 311 311 309 312 312 314 315 315 320 322 319 324 326 329 329 330 330 329 327 328 330 331 331 333 331 348 349 349 343 341 342 345 348
306 309 309 307 308 307 308 308 309 306 310 311 310 309 308 310 311 312 312 314 319 320 321 321 328 328 330 330 331 330 329 329 329 328 331 332 329 327 351 348 344 341 341 342 347
308 310 310 309 310 309 308 308 304 306 310 310 307 308 307 310 310 311 312 314 316 320 322 323 323 326 331 331 331 331 328 331 331 330 331 330 325 328 344 345 344 342 341 344 347
307 311 311 310 310 309 309 304 308 309 309 307 307 307 308 309 310 311 311 311 318 315 318 322 323 324 327 331 333 331 328 330 333 327 329 322 323 325 326 340 342 342 343 346 347
306 312 311 310 310 310 309 305 307 306 307 307 307 307 307 310 310 310 310 312 315 314 316 319 322 324 326 329 332 327 331 321 319 319 320 323 321 322 323 323 334 344 346 347 347
304 312 311 311 310 309 304 307 307 306 307 307 306 307 306 309 310 310 311 312 313 313 312 314 320 322 324 328 329 329 323 324 316 322 323 322 321 324 323 323 322 341 345 348 348
304 311 312 312 311 308 303 304 306 308 308 307 308 308 306 308 309 310 310 310 313 312 312 312 316 321 322 327 328 326 326 322 321 317 321 322 325 322 322 321 323 336 343 347 347
305 306 312 312 307 304 303 306 308 308 308 307 308 307 306 309 309 309 310 311 310 311 312 313 316 321 321 321 324 328 323 321 322 320 318 320 325 326 324 324 323 324 344 345 345
307 310 311 309 305 304 305 309 308 308 308 308 307 306 306 309 310 310 310 310 310 311 312 313 317 318 321 318 320 321 327 322 317 317 320 323 324 324 324 325 327 326 330 343 344
308 305 309 308 307 306 306 308 308 309 308 307 306 305 306 307 308 310 310 309 308 308 310 312 309 314 320 321 321 322 323 323 323 323 321 323 324 325 325 327 324 326 328 333 344
308 305 306 305 306 305 305 307 310 310 308 307 305 307 305 305 306 309 308 308 307 309 310 309 309 310 314 317 321 323 326 327 323 323 324 324 325 323 324 330 328 329 331 337 346
307 306 305 305 305 305 305 308 310 310 309 307 307 307 304 304 306 307 307 307 308 308 308 308 308 310 314 324 326 327 328 328 324 325 323 321 323 322 328 332 332 336 334 339 346
305 306 305 305 305 305 307 307 307 308 309 309 309 307 306 306 307 307 308 308 307 308 308 308 307 309 317 323 329 331 327 328 325 324 325 324 323 330 332 339 338 329 336 341 346

GFSSW_850_thetae_039.txt.gz
Theta_e
303 303 303 303 303 304 304 304 304 304 305 305 305 306 306 308 313 319 319 315 315 316 322 318 316 324 347 349 353 348 343 349 347 348 349 347 350 352 352 350 350 349 342 342 340
303 303 303 303 304 304 304 304 304 304 304 305 305 306 306 307 310 315 325 322 314 315 321 316 321 335 348 350 352 351 342 346 342 345 348 348 350 352 350 351 349 348 342 341 339
304 304 304 304 304 304 305 306 307 308 309 308 307 306 307 308 311 320 320 323 318 315 317 318 329 339 346 347 351 352 347 346 343 347 346 348 350 349 351 352 350 342 341 340 336
304 304 304 304 305 305 306 310 311 311 310 311 311 307 308 310 318 321 320 319 320 314 314 320 333 328 330 337 344 351 350 350 348 347 347 348 348 350 351 351 350 347 341 338 336
305 305 305 305 305 305 307 311 311 312 310 311 310 312 310 310 311 317 321 320 318 313 314 323 325 326 328 331 337 346 348 347 350 350 348 345 349 352 351 351 350 341 339 337 343
306 306 306 305 305 306 309 311 310 308 314 310 312 312 312 310 312 321 319 323 317 314 315 322 327 324 326 329 337 340 343 345 344 345 345 345 349 349 351 350 346 341 339 338 343
308 308 307 307 305 306 310 311 310 308 313 311 309 316 315 312 313 322 320 321 318 316 316 316 318 326 324 328 330 331 338 334 339 342 342 343 343 346 351 349 347 344 341 340 343
309 309 308 307 306 306 310 310 308 308 314 315 309 317 315 313 311 315 316 323 320 314 317 317 317 324 323 325 324 332 331 335 337 341 342 342 345 352 350 348 348 347 344 344 344
308 308 309 308 307 306 310 310 307 308 315 308 314 319 317 318 313 317 316 319 322 319 317 317 317 318 322 322 321 322 332 338 339 339 343 344 349 351 350 348 347 347 347 346 346
308 308 308 309 308 307 310 308 308 308 308 309 313 314 312 310 311 316 317 319 324 325 319 318 318 315 316 318 328 325 332 334 335 337 343 344 347 350 350 349 348 348 348 347 346
307 307 308 308 308 307 309 306 307 307 306 306 308 307 310 310 312 312 314 319 324 323 316 317 315 317 316 320 323 327 332 336 335 335 339 344 345 352 349 349 349 348 348 347 347
305 306 307 307 309 307 307 307 308 307 304 309 310 309 309 310 310 312 314 317 322 319 319 317 318 317 318 319 321 322 325 330 332 333 333 334 343 352 349 349 349 348 348 347 347
304 306 307 309 308 306 307 308 308 308 304 307 310 309 309 311 311 312 313 314 315 322 320 322 322 320 321 320 321 322 323 326 331 331 333 337 346 346 350 349 349 349 348 347 347
306 307 310 309 307 307 308 308 308 308 302 307 310 309 309 311 311 311 312 314 315 320 322 321 323 324 321 323 322 322 323 326 328 331 332 331 351 354 352 350 349 349 348 348 347
305 308 310 308 309 308 308 308 309 308 306 311 308 309 309 309 310 311 311 314 314 314 316 322 323 324 324 324 324 325 324 326 327 327 329 330 332 347 351 353 350 349 349 349 349
304 308 310 309 309 309 308 309 308 305 307 310 308 307 307 308 310 310 310 313 314 316 316 317 320 323 324 326 326 326 325 325 326 324 329 329 330 328 348 351 350 348 349 349 349
304 310 311 310 309 310 309 309 304 305 308 307 306 306 306 308 309 309 309 315 314 317 317 319 319 320 324 326 326 327 324 326 328 327 332 328 327 331 339 345 346 347 347 347 346
304 311 310 311 311 310 309 304 308 307 307 306 306 306 306 308 309 309 308 311 313 313 314 316 322 321 321 326 327 328 327 327 330 331 332 324 327 326 330 342 344 345 345 344 341
303 309 311 310 310 310 309 304 306 305 306 306 305 306 306 309 308 308 308 310 314 313 314 315 318 315 322 323 328 328 330 325 322 317 323 329 320 320 323 334 342 344 344 342 340
302 305 311 312 312 310 303 305 305 307 306 306 306 307 306 307 308 308 309 309 311 311 311 313 315 315 319 322 325 329 325 328 319 326 326 321 321 325 323 325 331 342 343 343 342
302 306 311 310 309 307 302 302 305 308 307 307 307 307 306 306 308 309 308 309 310 309 310 312 313 317 319 320 322 325 327 328 327 319 327 320 325 319 321 321 323 336 341 341 342
302 301 310 309 306 302 302 303 307 307 308 307 307 306 306 308 308 307 310 310 310 311 311 311 315 319 321 318 317 324 324 319 331 326 316 318 324 322 320 320 322 329 337 341 343
304 307 309 309 305 303 304 307 308 307 307 308 307 305 305 307 307 309 309 309 310 309 310 310 317 314 319 318 319 320 326 321 321 316 320 329 328 319 321 323 320 322 331 337 343
306 303 308 307 307 304 304 307 308 309 308 307 306 305 305 306 305 307 308 309 309 308 310 311 313 311 316 317 314 317 319 323 320 319 322 322 326 324 321 321 321 324 326 329 340
307 303 306 301 303 303 304 305 308 310 309 308 305 306 305 303 304 304 307 308 308 309 309 309 311 308 310 310 311 313 315 318 319 321 322 321 319 321 320 321 326 331 333 327 336
306 306 305 304 305 304 305 306 308 308 308 309 309 309 308 302 303 304 305 306 308 308 308 308 311 308 310 312 312 315 320 324 324 321 320 320 320 320 327 338 340 332 327 331 339
305 305 305 306 306 306 307 308 308 307 309 309 308 308 307 306 306 306 306 306 307 309 308 308 309 308 311 316 322 325 323 326 326 325 325 321 325 326 340 342 342 344 330 330 339

GFSSW_850_thetae_042.txt.gz
Theta_e
303 303 303 304 304 304 305 306 306 307 307 307 306 306 307 307 307 309 318 321 314 315 313 325 326 328 336 346 351 347 346 347 347 347 351 348 351 351 351 347 348 344 342 342 341
304 304 304 304 304 304 306 309 310 310 311 310 310 308 306 307 308 309 314 317 315 315 320 322 321 335 344 348 351 350 343 344 342 345 348 347 352 353 351 349 346 344 342 341 340
305 305 305 304 305 305 306 310 311 311 310 310 311 310 308 307 310 319 320 320 318 315 319 320 317 339 343 347 350 351 348 343 343 345 346 347 350 351 351 351 347 341 341 341 340
308 307 306 306 305 305 306 309 310 310 308 311 310 309 311 308 315 320 321 320 321 314 320 318 322 341 341 343 348 352 350 349 349 347 347 348 348 349 350 350 350 346 340 340 339
308 309 308 307 306 306 306 310 310 309 307 312 310 310 311 310 309 312 317 321 320 314 318 323 334 330 335 341 339 349 349 348 350 348 348 347 347 348 351 351 350 345 340 339 338
308 308 309 308 308 307 306 309 309 307 308 311 313 309 312 310 310 317 319 319 320 316 319 321 333 331 330 331 338 340 342 345 344 345 344 347 347 349 350 350 346 342 339 338 336
308 307 308 308 308 308 307 309 309 307 308 312 308 312 314 313 313 315 314 323 319 314 315 319 322 328 323 326 331 335 336 334 333 339 342 343 349 348 349 348 342 340 337 336 337
307 307 307 308 308 308 308 309 308 307 308 307 311 314 315 315 314 315 315 316 321 313 315 321 323 323 322 323 322 327 331 334 335 335 339 342 345 349 349 345 340 338 337 336 339
305 306 307 307 307 309 308 308 307 307 307 310 311 314 313 312 311 313 315 318 321 314 315 317 320 318 322 321 321 320 334 334 338 337 341 341 345 350 348 345 342 339 337 337 340
304 305 306 307 308 308 307 307 307 307 308 311 310 312 311 309 311 312 313 318 321 318 316 317 317 313 313 318 325 326 327 333 338 336 340 342 342 350 348 347 344 342 339 338 341
305 306 307 309 309 307 306 307 308 308 308 306 308 308 309 309 311 312 314 320 324 321 317 316 314 315 316 319 323 325 330 333 334 334 341 342 344 352 348 347 347 346 343 341 342
304 306 308 311 309 306 307 307 307 308 306 308 309 309 308 309 310 310 313 317 320 319 315 314 315 315 314 315 319 321 322 326 329 333 335 336 343 351 349 348 347 347 346 345 344
304 305 308 309 307 307 308 308 308 308 304 307 309 308 308 310 310 309 312 314 313 319 317 316 316 316 316 317 316 318 321 322 329 330 332 334 338 350 349 348 348 347 346 346 346
304 304 309 308 307 308 308 309 309 308 301 307 308 308 308 310 308 309 309 313 313 317 319 318 319 319 316 317 317 316 319 323 324 328 331 333 339 347 350 350 348 348 347 347 346
304 304 310 308 308 309 309 309 309 307 306 310 307 308 308 308 308 308 310 313 314 314 314 319 321 321 320 317 318 318 319 321 323 325 327 329 332 338 349 352 350 348 348 347 346
303 305 310 310 309 309 309 309 307 303 307 309 307 306 306 307 309 309 310 312 314 315 315 314 316 317 321 321 319 322 323 321 323 322 328 327 330 329 350 352 350 348 348 348 347
303 304 310 310 310 310 309 308 303 304 306 306 306 305 306 307 308 307 311 312 312 312 315 316 317 316 317 320 321 323 322 323 325 326 330 328 330 329 328 348 348 347 348 348 348
303 303 310 310 310 309 309 303 307 306 306 305 305 305 306 307 307 308 307 312 312 311 313 314 318 318 317 318 322 323 323 323 327 327 328 323 328 328 328 338 347 347 347 348 348
303 303 310 311 311 310 309 303 305 304 305 306 304 305 305 307 307 307 307 311 312 311 313 313 316 313 316 317 321 323 325 322 323 318 323 326 323 323 325 330 340 344 346 347 348
304 303 310 309 311 310 304 305 304 306 306 305 305 306 306 305 307 307 307 308 311 311 309 312 314 313 315 318 319 323 323 326 321 331 324 325 320 331 323 325 330 337 342 345 346
303 304 309 307 308 307 303 301 304 307 307 306 305 305 305 306 307 308 307 309 309 310 309 310 313 314 314 318 320 321 327 326 325 321 329 321 322 322 323 326 326 331 341 342 344
303 297 306 309 306 301 302 303 306 306 307 306 305 304 305 306 307 306 308 309 310 310 311 311 313 315 315 316 317 316 321 324 330 326 318 320 328 321 321 321 323 325 335 339 341
304 305 306 307 304 302 303 305 307 307 306 307 307 305 304 305 306 307 308 309 310 310 310 309 311 315 315 315 313 317 320 321 318 326 328 332 328 321 319 319 321 322 325 331 336
305 302 305 305 304 303 304 305 307 308 309 309 306 305 304 305 305 305 307 310 310 308 309 310 311 312 314 315 312 312 313 319 319 326 329 329 328 326 324 321 321 320 323 325 334
305 302 304 302 302 304 305 304 307 309 308 308 307 308 308 305 303 304 305 306 308 308 309 307 312 311 310 311 311 311 312 313 315 318 326 324 324 324 323 322 319 323 326 325 326
306 306 305 304 305 305 305 307 307 308 308 309 309 309 308 309 307 305 304 303 305 307 308 308 310 312 310 309 310 311 313 314 315 318 318 319 319 325 320 326 340 341 342 337 329
305 305 304 306 306 306 307 307 307 307 307 307 309 309 310 308 307 305 304 304 304 307 308 308 310 310 309 311 313 315 317 323 325 325 324 321 325 329 332 343 341 342 344 344 339

GFSSW_850_thetae_045.txt.gz
Theta_e
306 306 306 305 305 305 306 308 310 310 311 309 310 310 308 307 307 307 310 316 317 314 314 325 336 335 340 347 350 347 351 356 348 350 353 348 352 352 350 346 346 344 343 343 343
308 308 307 307 306 306 306 307 309 310 309 309 310 311 310 308 308 309 315 313 317 313 314 328 338 339 342 347 351 351 353 351 345 345 349 349 353 353 351 348 346 344 343 343 342
308 308 308 308 308 306 306 308 309 309 309 307 309 309 310 310 310 320 321 322 316 315 322 329 331 338 343 347 350 350 352 347 344 345 347 349 353 353 351 351 348 345 343 342 342
307 307 308 308 309 308 307 307 309 309 308 307 311 311 309 311 317 317 319 320 318 314 323 327 336 338 338 344 348 353 351 349 349 345 347 348 350 350 351 351 349 345 344 342 342
306 307 307 307 308 308 308 308 309 309 308 309 312 310 309 310 309 315 319 319 315 316 328 326 332 333 332 338 343 349 350 350 349 349 348 349 349 349 350 350 348 344 343 342 341
306 306 307 307 307 308 308 309 309 308 308 309 309 312 311 312 312 313 317 318 317 323 327 326 326 330 332 340 338 339 345 348 345 347 346 348 347 347 351 347 345 343 343 341 340
304 305 306 307 307 307 309 309 308 308 308 308 311 314 315 314 311 313 314 320 316 322 325 328 326 326 326 327 333 336 341 337 339 339 344 343 347 350 348 347 345 343 342 341 340
304 305 306 307 307 308 309 309 308 308 308 311 313 315 316 310 311 313 315 316 318 322 322 325 324 328 323 324 324 327 331 332 338 340 340 341 349 348 347 347 345 343 342 341 339
303 304 306 308 309 309 309 308 307 308 310 312 311 312 310 311 312 313 315 316 321 325 317 318 321 321 322 326 327 328 326 329 334 339 344 344 347 349 347 347 345 343 341 340 339
304 304 306 310 310 308 308 308 308 309 309 311 310 311 310 309 311 312 315 317 321 319 317 317 320 320 321 323 323 327 327 335 334 342 342 345 346 352 349 347 345 342 340 339 339
304 304 305 310 307 306 307 308 308 309 308 307 308 308 308 310 311 310 317 321 320 316 316 318 318 321 320 321 322 327 331 330 336 339 343 345 345 351 350 348 345 342 340 339 340
303 303 305 310 307 307 308 308 308 308 309 308 308 308 308 310 311 309 316 319 323 323 317 317 318 318 318 317 321 322 327 330 333 333 341 343 345 345 351 350 348 345 341 340 341
303 303 306 309 308 307 308 308 309 308 306 307 308 308 308 310 310 309 311 313 319 323 322 321 320 318 317 317 318 321 322 327 329 329 334 338 342 341 351 350 349 348 345 342 341
303 303 308 309 308 308 308 309 309 308 308 310 309 308 308 309 309 308 310 313 315 320 323 323 323 319 318 319 318 319 319 322 327 329 337 337 348 344 344 353 351 349 348 347 344
303 303 309 309 309 308 309 309 308 306 310 310 308 307 307 309 309 309 309 313 315 317 318 324 324 324 323 321 319 319 319 319 320 327 330 333 338 344 345 350 352 350 349 348 347
304 302 308 309 309 309 309 308 307 309 309 309 307 307 308 309 309 308 312 312 314 316 318 318 317 320 324 324 319 320 320 321 321 321 325 332 335 339 343 349 350 349 349 349 348
309 303 308 310 310 309 309 308 309 309 308 308 307 307 308 308 308 309 313 314 315 311 316 314 316 318 319 322 322 322 323 326 325 325 322 326 333 335 338 342 345 348 349 349 349
309 304 307 309 310 310 309 309 310 308 308 307 307 307 307 308 308 308 311 313 313 314 316 315 311 319 316 321 323 324 324 325 327 326 322 324 333 334 333 333 340 344 347 349 350
307 303 310 308 310 311 309 309 309 307 307 307 306 307 307 308 307 308 310 314 313 313 313 315 316 315 315 316 319 323 326 324 324 327 327 324 326 330 332 333 334 340 346 348 349
306 306 308 307 308 310 311 309 308 307 307 307 307 307 307 307 307 308 308 311 312 311 311 313 307 312 315 315 319 321 323 327 326 327 327 327 327 327 333 333 335 336 342 346 348
305 305 306 308 308 307 310 308 306 307 308 308 307 307 307 307 308 308 307 310 311 311 310 311 310 307 310 315 321 323 323 326 327 328 328 326 328 328 329 336 335 335 336 342 346
305 304 305 308 310 305 309 307 306 307 307 308 307 307 307 307 308 308 308 307 310 311 311 311 312 311 308 309 312 314 319 324 330 332 330 330 328 327 330 331 333 333 333 335 342
304 304 305 308 310 309 306 307 307 308 309 309 308 307 307 307 307 308 308 309 310 310 311 312 311 309 306 310 313 315 317 319 324 328 333 332 329 329 329 329 329 332 334 337 340
305 308 306 305 304 305 304 307 308 307 309 309 309 307 306 306 307 307 308 311 310 309 310 310 311 309 307 309 314 315 317 317 321 328 331 332 329 329 331 329 329 328 326 327 335
305 305 304 308 307 305 305 305 308 309 309 309 310 308 309 309 307 307 307 307 310 309 310 310 310 309 310 309 310 311 313 314 316 322 330 331 333 331 332 333 332 329 328 328 327
306 306 304 305 304 305 305 307 307 307 307 308 309 309 309 311 309 309 307 308 308 309 310 309 310 309 309 307 309 312 313 314 315 317 322 326 330 332 331 330 329 331 337 339 339
305 305 305 306 306 306 308 307 308 308 307 307 308 304 307 308 307 308 308 307 307 308 309 310 309 309 309 308 312 316 314 315 317 320 322 325 328 330 335 343 343 343 343 343 344

GFSSW_850_thetae_048.txt.gz
Theta_e
308 308 309 308 308 308 307 307 309 309 309 309 309 309 310 310 307 307 309 316 316 312 325 342 343 343 343 348 351 351 355 357 352 353 357 352 353 351 348 348 349 348 347 348 347
307 307 308 308 309 309 309 308 308 309 309 308 308 309 309 310 308 310 309 311 317 313 335 339 342 341 341 345 349 350 352 350 348 348 351 351 352 352 353 351 348 347 347 347 346
306 306 307 307 307 308 309 309 308 309 309 308 309 310 311 309 316 321 319 321 317 313 335 335 335 338 336 343 346 349 351 349 347 347 350 354 355 355 353 354 350 348 348 346 345
305 306 306 307 307 307 308 308 309 309 308 308 309 310 310 310 321 316 317 318 320 315 334 333 333 333 334 341 343 346 348 348 348 348 349 351 351 352 351 352 351 347 347 346 345
304 305 306 306 307 307 307 309 309 309 308 308 309 312 309 316 313 315 318 318 319 326 333 331 332 332 333 334 336 343 347 350 348 348 348 349 350 349 351 352 350 347 346 346 344
304 304 306 306 307 307 307 309 309 309 308 308 312 312 316 317 315 315 317 320 323 330 332 328 330 328 329 330 333 334 338 348 348 349 348 349 349 347 350 351 350 348 347 345 344
304 304 305 307 308 308 308 309 309 308 308 311 314 315 316 313 313 314 317 325 326 327 329 325 326 327 325 329 331 333 340 339 343 345 348 347 348 349 351 351 350 349 347 346 344
304 304 304 307 310 310 309 308 308 308 310 313 314 317 315 312 313 313 316 324 326 328 326 326 324 325 324 325 324 329 329 337 341 342 344 346 351 350 351 351 351 350 347 346 344
304 304 304 306 310 310 308 308 308 309 311 312 315 317 314 312 312 313 314 322 323 324 323 324 324 326 327 325 325 326 328 332 339 342 346 347 349 352 350 350 351 350 348 346 344
303 304 304 308 310 308 308 308 308 310 310 312 311 316 312 312 311 314 318 323 324 325 319 319 322 324 325 325 326 326 327 331 334 343 347 349 348 352 350 350 351 350 348 346 345
303 304 304 309 307 307 308 310 314 312 311 311 311 312 311 312 312 315 318 323 323 326 324 319 323 324 323 324 324 327 329 330 335 339 346 349 348 350 351 350 350 350 348 346 345
303 303 304 310 307 307 310 311 310 309 313 309 309 310 310 311 314 313 319 324 321 325 323 321 321 322 324 323 324 324 329 333 334 336 343 348 348 347 352 351 349 349 348 346 345
303 303 304 310 308 308 309 309 309 309 312 310 310 311 310 312 312 311 315 318 325 323 322 323 323 321 321 322 322 324 324 326 332 334 335 344 349 348 348 351 350 349 347 346 344
307 305 304 309 309 308 310 309 309 308 315 313 312 310 310 312 313 310 312 316 320 326 325 323 323 322 321 322 322 323 323 323 324 331 338 339 349 348 347 352 352 351 349 347 346
309 309 303 309 309 311 309 308 308 307 313 313 312 309 310 312 311 311 312 314 319 321 324 326 324 325 324 323 323 323 323 322 322 324 332 338 344 346 346 348 352 351 350 348 346
309 309 303 310 310 310 309 308 307 314 313 312 310 311 312 311 311 310 312 313 315 316 321 323 322 323 325 325 324 323 323 323 323 323 323 331 340 344 346 347 347 349 349 349 349
308 308 303 309 312 310 309 309 313 313 312 312 311 311 311 312 311 311 314 315 316 314 317 319 321 323 323 326 326 325 325 327 327 325 324 326 331 339 340 342 345 347 348 349 349
306 304 307 309 310 310 310 313 313 312 312 310 310 310 311 311 312 311 313 315 314 316 316 316 317 319 320 323 327 326 326 330 332 328 325 325 327 331 335 337 339 344 345 348 349
306 307 309 308 310 310 312 313 313 312 311 311 311 311 312 311 311 311 312 314 314 314 314 316 315 318 318 320 323 326 328 327 330 330 330 327 325 326 331 335 336 337 342 344 348
306 309 308 307 308 310 313 311 312 311 310 311 312 312 313 312 311 312 311 313 312 312 311 315 312 313 315 316 319 324 326 328 328 331 332 331 330 327 329 335 336 337 338 343 347
308 311 307 308 309 312 315 315 312 310 310 311 312 312 312 312 311 312 312 312 312 312 311 312 311 313 311 312 317 322 324 326 328 329 331 333 331 330 329 330 335 336 336 338 345
309 311 308 310 314 313 315 312 308 311 310 311 310 311 311 311 311 312 312 311 311 311 311 312 313 314 312 312 313 314 322 325 328 330 330 332 333 330 329 330 330 333 336 337 341
311 309 309 312 316 315 312 311 310 311 312 312 311 311 311 311 311 310 310 309 310 310 311 312 312 313 311 311 312 313 315 320 324 327 331 333 333 331 331 331 330 330 331 336 338
311 315 312 310 308 309 309 310 311 309 311 311 312 311 311 311 310 310 309 310 310 309 310 309 310 311 311 312 311 314 316 318 322 326 328 329 330 333 331 331 332 332 333 332 334
310 311 308 310 309 309 309 309 309 310 310 309 311 311 312 312 312 310 309 309 309 309 311 311 314 311 311 310 310 310 310 314 319 322 325 326 328 330 333 332 332 332 331 332 332
311 310 307 307 306 309 309 310 310 309 309 309 310 310 310 312 312 311 310 310 310 311 311 311 313 311 311 310 310 310 309 310 313 316 320 322 325 327 330 331 331 330 332 333 336
306 306 307 306 308 309 309 309 309 308 308 308 309 309 308 309 309 309 310 310 311 311 312 312 313 312 311 309 309 309 310 311 312 315 318 322 325 329 333 335 335 334 334 338 341

GFSSW_850_thetae_054.txt.gz
Theta_e
305 305 306 306 307 307 307 307 308 308 309 309 309 309 310 310 310 308 310 321 318 319 318 326 333 340 344 347 348 345 354 359 356 356 359 356 357 350 350 353 352 350 352 350 348
304 305 305 305 306 307 307 307 308 308 309 309 309 309 309 310 310 319 319 318 320 317 322 334 334 339 343 344 346 346 354 353 348 350 356 356 354 354 353 351 351 352 352 350 347
305 305 305 305 306 307 308 308 308 309 309 309 309 309 310 312 321 324 321 318 315 315 324 336 335 339 340 343 343 344 351 347 347 350 352 355 353 351 350 352 352 353 351 349 346
304 305 305 306 306 307 308 308 308 308 309 309 309 309 312 312 331 325 322 316 314 315 328 338 336 338 340 342 341 345 345 346 347 349 354 356 354 354 349 353 351 352 350 348 347
305 305 305 306 306 307 308 309 309 309 309 309 309 311 311 321 324 320 318 320 314 316 328 339 338 338 339 339 339 341 343 344 349 350 353 355 353 353 353 351 351 352 349 348 347
304 305 305 306 306 307 309 310 310 309 309 309 311 312 313 328 319 318 321 328 323 319 328 339 337 336 336 336 335 338 341 342 347 350 351 354 351 352 350 352 351 350 349 349 348
304 304 305 305 306 307 309 310 310 309 309 312 313 316 327 325 317 318 321 327 326 322 326 336 335 334 334 334 332 333 337 338 340 350 350 350 350 352 353 352 351 350 350 349 348
303 304 304 305 306 308 309 310 310 310 311 314 316 322 330 317 317 317 321 326 326 324 325 333 333 332 332 332 330 330 333 337 339 349 350 350 351 347 350 351 352 351 350 349 348
303 304 304 305 306 309 309 310 309 310 312 314 318 324 328 316 317 317 318 326 326 326 330 334 331 331 329 333 331 330 330 335 338 344 349 351 354 353 350 349 352 351 350 349 349
303 304 305 305 306 309 311 312 310 310 312 314 317 322 320 317 317 318 319 326 327 329 331 331 330 330 330 330 332 330 329 331 336 338 347 348 351 353 347 347 352 352 350 348 348
307 308 308 306 307 310 314 316 321 322 318 321 321 320 317 317 316 320 322 323 326 330 330 330 331 331 330 329 331 330 329 328 332 335 347 349 351 347 345 343 351 352 350 349 348
308 308 309 308 307 310 314 316 315 315 317 318 315 315 315 316 318 321 324 326 327 331 327 328 330 330 327 330 330 331 331 329 330 333 341 353 352 348 345 349 350 351 350 349 348
307 307 308 308 308 313 314 314 314 315 316 317 315 315 316 315 317 318 319 324 327 327 329 327 327 327 328 328 329 329 329 329 330 333 337 340 350 346 343 345 347 349 349 349 349
307 307 308 308 312 315 315 314 315 315 318 319 316 315 314 315 317 316 316 320 324 326 326 329 328 328 326 327 328 328 328 328 328 331 336 339 345 353 353 352 344 342 350 348 349
307 306 307 308 308 316 315 314 314 315 320 317 317 314 315 316 317 316 315 316 320 324 326 327 327 328 328 327 327 327 328 329 328 328 332 338 342 342 355 354 347 350 351 349 348
308 308 307 315 312 314 313 314 314 316 317 317 317 315 315 316 316 316 316 315 318 320 322 324 326 326 326 326 326 327 327 328 329 327 328 329 335 339 347 351 346 347 350 349 349
310 306 306 309 316 315 313 315 317 317 319 317 317 316 317 318 317 316 317 317 316 317 318 322 324 326 327 326 326 326 326 328 329 329 327 327 328 333 339 351 348 344 342 342 350
310 308 312 310 312 312 313 317 318 319 318 317 316 315 316 317 317 317 316 317 319 318 319 320 318 321 326 327 327 327 327 328 330 330 329 330 328 329 332 340 347 343 345 348 350
311 314 315 313 312 311 314 319 319 318 317 316 316 315 315 316 316 317 317 317 318 319 318 319 320 322 321 325 326 327 330 327 328 329 330 331 330 329 331 334 344 344 347 348 348
312 316 314 313 312 313 317 318 318 317 316 316 315 316 318 318 317 317 317 318 318 318 318 318 320 321 322 323 324 324 326 329 329 332 334 331 333 332 332 334 339 344 342 342 342
315 318 315 316 315 316 319 321 320 317 315 317 318 318 319 319 318 318 318 318 317 317 316 316 316 318 321 321 321 322 322 325 329 331 332 332 332 335 338 334 336 345 343 340 344
319 319 316 316 319 320 321 319 316 318 316 317 317 317 317 318 318 318 319 318 316 316 316 317 315 317 318 320 320 319 320 320 322 331 331 331 331 332 335 334 333 331 334 345 346
319 318 317 318 321 321 319 318 316 316 317 316 317 317 317 317 317 317 317 316 315 315 316 316 316 316 317 318 318 318 317 318 319 321 327 332 332 332 333 336 332 331 330 334 346
319 321 318 316 316 317 318 317 317 314 315 314 315 315 315 316 316 317 317 316 315 313 313 313 315 317 318 318 318 318 318 317 317 322 323 324 329 334 332 335 335 334 334 332 334
317 317 315 318 316 316 317 316 315 315 313 313 315 315 315 315 316 315 315 316 315 314 312 313 314 315 315 315 316 316 316 317 317 318 322 324 325 330 328 330 332 333 333 334 335
315 317 314 314 315 316 314 314 313 313 313 314 314 312 312 313 314 314 314 314 315 316 315 314 314 314 315 315 316 317 316 316 317 317 317 319 322 324 324 326 328 330 330 329 331
314 314 315 313 314 315 314 313 313 313 313 312 312 312 312 313 311 311 311 312 314 314 316 316 315 315 316 314 315 317 317 316 316 316 317 317 320 321 321 322 324 324 325 325 327

GFSSW_850_thetae_057.txt.gz
Theta_e
305 305 305 305 305 306 307 307 307 308 308 309 309 309 309 309 310 310 309 319 318 319 320 321 324 337 346 351 350 350 349 357 357 354 357 354 355 350 349 352 353 351 349 347 345
305 305 305 305 306 306 307 307 308 308 308 309 309 309 309 310 311 310 310 316 320 319 317 325 330 335 340 346 347 348 349 352 349 349 354 349 353 347 352 352 353 352 349 347 346
305 305 305 305 306 306 307 308 308 308 308 309 309 309 309 311 318 324 314 317 318 320 316 330 331 334 339 343 345 343 348 345 347 349 353 349 351 352 352 353 351 352 349 348 347
305 305 305 305 306 306 307 308 309 309 309 309 309 309 310 312 330 326 323 322 320 317 316 331 334 333 339 340 342 344 342 343 346 353 355 354 353 350 350 351 352 352 349 347 347
304 304 305 305 306 306 307 309 309 309 309 309 309 309 312 320 318 320 318 319 315 317 316 332 336 337 338 338 339 341 340 341 346 350 354 353 354 352 349 346 352 350 349 346 346
304 304 304 305 305 306 307 309 309 309 309 309 310 312 311 325 320 319 319 325 318 318 316 331 338 338 338 338 336 337 338 338 341 352 355 353 353 353 350 347 351 350 349 346 346
304 304 304 305 305 306 308 309 309 309 310 310 313 313 322 327 319 318 318 325 325 319 317 336 339 340 336 333 335 333 331 332 336 346 352 351 351 352 351 350 352 349 348 346 346
304 304 304 305 305 307 308 309 309 309 311 313 316 319 326 319 318 318 319 324 328 325 319 331 337 337 335 333 333 329 327 329 333 341 349 350 357 353 350 351 351 349 348 347 346
305 306 306 306 306 307 308 310 309 310 311 314 317 327 327 319 317 318 318 323 326 328 322 324 329 334 333 329 329 330 326 327 330 333 349 350 357 353 352 351 351 350 349 348 348
308 308 308 309 308 307 309 313 314 310 315 313 318 321 322 320 317 318 319 320 326 324 324 324 331 329 327 325 329 330 326 325 327 332 348 352 356 351 348 349 352 350 350 348 348
307 306 307 309 309 307 312 315 319 319 313 322 323 320 320 317 316 319 321 322 327 328 328 331 330 330 327 327 327 328 329 328 326 329 343 352 357 355 347 350 352 351 350 348 347
306 306 306 307 309 307 312 315 314 314 315 316 319 319 316 316 317 320 324 320 326 327 328 328 330 330 329 328 328 327 328 328 329 327 330 349 355 349 350 348 351 350 350 349 348
307 306 306 307 309 312 314 315 314 315 315 316 315 317 315 315 316 320 323 325 326 326 329 326 327 329 329 329 327 327 327 328 328 327 335 349 351 348 346 348 348 349 349 348 347
307 308 306 307 312 316 316 315 315 315 313 318 316 315 315 315 315 317 317 317 322 325 325 325 327 327 327 327 326 323 326 327 327 325 326 346 354 349 346 350 351 347 348 346 347
308 310 306 308 309 314 314 314 314 314 317 317 316 315 315 315 317 316 316 315 316 319 321 324 324 327 328 326 324 325 326 326 326 325 324 325 326 347 347 352 348 348 344 344 345
309 310 306 314 316 316 315 313 315 314 318 317 316 315 315 315 316 316 316 315 316 316 317 318 321 324 326 327 326 325 324 323 324 323 324 323 325 329 352 351 345 340 339 341 344
309 309 306 312 315 313 312 314 315 315 318 316 315 315 314 315 316 316 316 315 314 315 316 319 320 321 323 324 323 324 323 321 323 324 325 323 322 321 349 348 345 342 341 341 349
310 312 313 309 313 313 313 314 318 318 316 317 316 315 316 317 316 316 316 314 316 315 314 315 316 317 322 324 326 322 321 321 325 326 325 324 325 323 325 349 344 342 344 349 349
312 314 315 313 312 311 313 316 318 317 316 316 316 315 315 315 316 316 317 315 316 316 317 316 318 319 320 323 325 325 324 322 322 323 324 325 325 325 325 337 345 344 347 345 344
314 315 316 316 314 313 314 316 318 316 316 317 317 316 317 317 316 315 316 316 317 316 315 315 314 316 318 321 324 323 324 322 322 325 326 326 326 328 327 326 343 345 344 348 346
317 319 317 317 316 316 318 320 319 317 317 316 317 317 317 317 317 318 318 316 316 316 315 315 314 314 315 318 320 321 320 322 321 324 326 325 325 326 330 331 343 344 344 349 346
318 321 317 317 319 321 320 318 316 317 317 317 317 317 317 317 316 317 317 317 316 316 315 314 313 312 313 315 316 316 319 318 318 321 324 328 329 327 328 331 337 344 343 348 342
318 320 317 318 319 319 318 316 315 315 315 315 316 315 315 316 316 317 317 316 315 315 315 312 313 314 313 313 316 316 316 314 313 312 315 318 325 326 326 327 330 333 337 346 346
318 320 318 316 316 316 317 316 316 313 313 314 315 315 314 313 314 316 316 316 316 315 314 313 312 313 314 314 314 315 315 315 314 311 313 316 319 320 325 326 326 330 328 336 346
318 316 315 316 315 315 315 313 313 313 313 313 315 313 312 312 313 314 314 315 315 316 315 312 312 312 312 313 313 314 314 315 314 314 314 314 317 323 322 322 324 324 323 324 327
315 316 314 314 315 315 314 314 313 313 314 313 313 312 312 312 312 312 311 311 313 313 313 313 313 312 312 313 313 314 315 316 316 315 315 315 315 315 316 317 317 316 317 318 319
316 316 316 314 314 313 313 314 314 313 313 312 313 313 313 312 312 311 311 311 310 310 313 314 314 315 314 314 314 315 314 315 315 316 314 314 314 315 315 317 316 317 318 318 319

GFSSW_850_thetae_060.txt.gz
Theta_e
305 305 305 305 305 306 306 307 307 308 308 308 309 309 309 309 309 310 310 314 317 320 320 320 317 330 349 350 351 350 351 354 352 354 356 354 354 349 350 351 351 350 344 344 348
305 305 305 305 305 306 307 307 308 308 308 308 309 309 309 309 310 312 312 311 318 319 321 321 318 336 338 348 350 350 350 351 345 351 355 354 352 349 351 351 352 351 345 346 348
304 305 305 305 305 306 307 307 308 308 308 308 308 309 309 309 313 325 316 312 319 319 317 321 322 335 334 338 345 344 351 347 347 350 345 346 349 351 351 352 352 349 345 345 346
307 305 304 305 305 306 306 307 308 308 308 308 308 309 309 311 329 324 321 319 318 319 319 324 325 331 333 337 341 343 343 343 345 350 348 349 350 353 352 352 352 349 344 345 346
308 306 305 305 305 305 306 307 308 309 309 308 309 309 311 315 314 321 319 320 321 319 318 320 325 332 332 336 339 338 340 342 343 352 348 344 348 349 350 352 352 349 346 345 345
307 306 305 304 305 305 306 307 308 309 309 309 309 311 311 323 319 319 318 321 319 316 318 317 333 334 336 334 336 338 337 336 353 351 349 350 352 351 350 351 351 348 347 347 346
305 305 305 305 305 305 306 307 308 309 309 309 312 312 318 318 318 318 318 319 326 315 317 320 334 333 338 334 336 336 333 328 343 354 353 350 354 354 348 351 351 349 347 347 346
307 307 307 307 306 306 307 308 309 309 309 311 315 318 318 322 320 320 318 319 325 327 318 325 331 333 333 337 332 329 326 326 332 353 352 348 357 351 347 351 351 350 347 346 346
308 307 306 307 308 308 308 308 311 310 310 312 315 326 324 323 317 317 317 319 322 327 324 318 323 324 329 329 325 325 329 328 326 336 352 349 357 352 351 352 350 349 348 346 346
307 306 305 306 307 309 308 311 314 313 310 315 316 320 319 318 317 317 317 319 327 327 325 323 322 322 325 324 327 329 329 324 325 326 348 352 355 353 352 351 350 348 347 346 346
306 306 306 306 306 309 309 314 316 318 313 316 319 316 318 317 316 319 319 319 324 325 322 324 325 328 328 325 325 326 326 326 327 327 330 353 356 356 353 352 350 348 347 346 348
307 307 308 305 307 308 309 314 314 314 313 315 315 316 318 319 316 318 321 321 325 325 325 326 328 327 328 326 326 327 326 325 325 326 328 353 356 354 350 351 351 349 348 347 348
306 308 310 306 310 312 314 315 314 314 313 315 314 315 318 315 315 318 323 321 324 324 326 326 327 327 329 328 328 326 325 326 325 326 347 351 355 353 348 347 352 351 350 349 347
306 309 309 307 313 315 314 314 314 314 308 312 314 316 316 315 314 317 318 317 319 323 324 326 327 326 327 328 326 325 323 325 327 323 328 344 355 349 350 349 349 344 350 350 349
308 309 309 307 311 314 314 313 314 314 316 316 313 315 315 314 316 315 316 315 315 316 318 321 322 325 326 325 325 325 324 323 324 323 322 324 322 340 349 352 352 341 340 344 346
309 310 307 312 315 313 312 313 314 310 316 315 314 314 313 314 315 316 316 316 315 314 315 315 318 319 321 324 325 324 322 320 318 319 321 321 321 340 349 350 351 348 347 346 347
311 311 308 311 313 312 312 313 311 312 314 314 313 313 312 312 313 314 315 314 312 312 312 314 316 317 320 321 321 322 317 319 321 320 321 320 320 320 345 344 348 348 349 348 346
312 312 312 312 312 311 312 310 315 316 314 314 313 312 312 313 314 315 314 312 313 312 310 312 314 315 316 321 323 321 317 318 322 322 322 321 323 323 332 344 345 347 348 344 346
313 315 313 313 312 312 312 311 314 314 315 315 313 312 313 314 313 314 314 312 314 313 312 313 315 315 317 315 321 323 322 317 318 319 320 321 322 324 328 328 344 343 341 340 341
316 316 316 317 315 313 309 316 314 315 315 314 314 314 314 314 314 313 313 314 315 314 312 313 313 313 315 315 317 322 320 322 316 321 323 322 323 323 327 333 339 342 341 341 343
319 318 317 316 316 315 314 317 316 315 315 314 314 314 314 314 314 313 314 314 314 314 312 310 309 311 312 311 312 312 314 317 316 319 322 322 322 327 329 331 331 342 342 344 347
320 314 317 318 316 314 310 312 314 313 314 312 313 313 313 313 314 314 315 314 314 314 313 310 308 311 312 312 313 312 311 309 315 318 317 322 323 324 326 327 325 328 343 346 347
319 319 315 317 311 310 312 313 312 312 312 312 312 311 310 311 313 314 315 315 314 313 313 310 308 311 311 310 310 312 312 311 308 307 311 313 314 320 325 325 323 324 340 347 346
317 311 315 315 314 311 311 311 312 312 312 312 310 310 309 309 308 311 312 313 313 316 316 311 307 309 311 312 311 312 312 312 309 308 309 311 313 314 317 317 318 321 331 346 346
315 312 313 311 311 310 311 311 312 312 312 312 311 311 309 309 309 310 309 309 311 313 312 308 309 310 310 311 312 312 312 313 312 312 312 311 312 313 314 314 315 318 318 325 333
315 315 314 312 312 311 309 310 312 312 311 311 312 311 309 310 311 311 308 308 309 308 309 308 312 311 311 312 312 313 313 314 313 313 314 313 311 311 314 315 316 317 318 322 325
316 317 315 311 310 309 310 311 312 311 311 312 312 311 310 311 312 311 311 310 309 308 307 310 310 310 313 311 312 312 312 313 313 313 313 313 312 312 312 314 314 320 320 321 320

GFSSW_850_thetae_066.txt.gz
Theta_e
312 311 309 307 305 305 305 305 306 307 307 307 307 307 308 309 309 309 310 310 317 317 322 323 319 323 345 347 350 350 351 352 350 352 355 350 353 350 351 348 345 346 344 344 340
317 315 313 310 308 306 305 305 306 307 308 308 308 308 308 309 309 310 311 311 316 315 319 322 321 325 346 347 348 349 353 350 346 350 353 351 352 352 352 349 343 344 344 343 340
313 313 312 311 310 308 305 305 305 307 308 308 308 308 308 308 310 323 321 312 316 318 319 322 322 340 340 344 348 348 351 346 347 351 351 352 351 351 351 351 346 345 344 343 341
309 308 308 308 309 308 307 305 306 306 308 308 308 308 308 309 318 319 314 311 318 318 320 318 331 340 333 337 343 343 342 345 344 348 349 351 350 351 350 350 349 341 342 343 342
308 308 308 307 307 307 307 306 306 306 308 308 308 308 308 311 311 319 312 313 319 319 321 319 333 332 333 334 336 339 340 341 341 340 347 347 350 351 351 351 348 343 344 345 343
308 308 307 306 306 306 307 307 307 307 308 309 309 309 309 311 317 319 319 316 318 318 320 320 331 334 333 331 336 337 338 338 336 337 345 346 347 350 353 350 344 343 344 345 345
307 306 306 305 305 306 306 307 307 307 308 309 309 311 311 312 321 319 319 318 318 318 317 321 328 332 332 335 335 335 335 331 332 348 347 351 353 350 352 348 345 345 345 346 346
306 306 305 307 307 306 306 308 308 308 309 309 311 313 314 314 319 319 319 320 319 318 318 319 328 329 330 332 329 326 324 327 342 348 350 346 349 350 351 347 344 345 346 346 347
305 306 307 308 308 306 306 308 309 310 311 309 312 314 320 320 320 320 318 319 322 319 317 317 320 325 326 326 326 323 329 328 328 348 350 348 350 348 352 350 346 344 344 345 346
306 305 306 308 309 306 307 310 315 312 310 310 313 319 315 321 321 319 319 319 322 322 319 318 317 317 319 323 334 329 328 326 327 350 350 351 349 350 351 350 349 347 344 344 345
309 305 306 309 307 306 309 312 313 315 313 313 313 314 315 317 317 316 317 319 324 323 320 319 318 319 321 323 327 326 326 326 325 328 330 329 343 350 349 352 350 348 345 345 343
311 308 307 309 307 309 313 313 312 313 312 314 314 314 315 315 316 316 316 320 324 322 320 319 318 320 322 325 326 325 326 326 324 324 322 330 341 348 347 352 351 349 346 346 344
312 311 308 308 311 312 313 312 312 313 311 313 314 314 315 317 316 315 316 321 321 321 320 321 324 323 327 327 326 325 325 325 326 325 334 348 349 353 352 350 350 350 347 346 345
312 312 309 308 313 313 312 312 313 313 307 310 313 315 315 316 313 315 318 321 320 321 321 323 324 326 326 328 326 329 323 325 326 322 321 340 340 350 351 350 348 349 348 347 345
312 310 310 307 312 312 312 312 313 313 313 313 312 314 316 313 314 314 318 318 317 318 321 323 323 326 326 325 324 327 323 324 323 321 319 322 339 329 347 350 348 348 348 347 346
311 310 309 312 312 312 314 312 313 309 314 312 312 311 311 312 313 314 315 315 314 312 314 318 315 321 324 324 323 322 321 314 313 314 318 318 331 320 348 347 345 347 349 348 347
312 311 312 312 311 311 312 314 309 312 312 313 310 310 310 311 312 312 310 308 309 310 312 313 315 316 317 318 318 318 317 318 318 318 319 316 319 320 325 325 332 343 347 350 349
314 313 313 313 312 312 313 310 313 314 314 312 310 312 312 310 311 311 311 310 311 308 306 310 313 313 314 315 314 316 316 317 321 318 319 317 320 322 325 325 324 337 345 348 349
315 316 315 316 315 315 314 310 312 313 313 312 312 312 312 312 311 310 310 311 311 309 311 311 313 311 313 312 314 317 317 315 314 314 317 317 321 323 323 321 322 324 342 345 347
317 316 316 316 316 316 311 312 313 312 312 312 313 312 313 312 312 311 310 312 312 310 309 310 313 311 312 312 311 314 312 317 313 319 322 318 325 326 321 320 320 324 335 342 346
317 316 315 317 316 314 308 311 312 311 312 312 313 312 311 311 311 311 312 313 312 311 309 309 309 312 309 309 309 310 310 308 311 313 317 321 324 318 318 318 316 337 344 337 345
315 310 315 317 311 306 307 309 311 310 310 309 310 310 310 309 309 312 312 310 312 312 312 308 307 310 310 308 309 309 310 306 315 317 309 317 320 312 310 312 317 331 344 342 342
315 313 313 315 309 306 309 309 311 309 309 309 309 307 306 307 310 310 311 311 310 315 315 310 305 307 311 308 308 309 309 307 303 303 309 315 313 310 311 312 319 326 323 330 338
314 309 312 312 309 308 309 309 310 311 310 310 308 307 306 307 306 309 309 309 309 313 315 309 304 307 308 310 308 311 311 310 306 309 309 310 312 310 310 311 316 317 317 318 323
313 309 309 307 308 307 307 309 311 310 310 310 309 307 308 308 308 309 308 307 308 309 309 305 310 309 308 310 311 311 312 311 311 309 311 309 312 311 311 311 313 313 313 312 312
315 312 311 309 309 308 306 309 310 310 309 310 310 309 308 309 309 310 309 308 307 307 305 304 310 309 310 310 311 311 311 311 311 311 311 310 312 311 312 313 313 312 311 312 311
313 312 312 308 307 307 308 310 311 310 311 311 310 308 310 311 310 310 310 308 307 307 305 306 305 305 308 309 309 310 310 310 311 311 312 312 312 311 311 310 310 312 311 310 310

GFSSW_850_thetae_069.txt.gz
Theta_e
318 317 315 314 313 310 307 305 305 306 307 308 307 308 307 308 309 309 310 310 316 319 323 322 320 336 343 347 349 350 354 355 352 352 356 350 352 350 352 347 345 345 345 343 342
316 314 313 312 311 311 310 307 305 306 307 308 308 308 308 308 309 310 311 310 317 319 323 322 324 343 346 347 349 351 356 353 348 350 353 352 352 351 351 346 346 346 345 342 342
313 312 311 309 309 309 309 308 306 306 307 308 308 308 308 308 309 321 321 311 315 317 323 323 321 341 344 347 348 349 354 348 347 350 351 351 352 351 351 349 346 346 345 343 342
311 310 309 308 307 307 307 308 307 306 306 308 308 308 308 308 316 322 314 312 316 316 320 321 328 333 343 346 345 350 345 345 345 348 350 351 351 352 350 350 346 346 343 343 342
308 308 307 306 306 306 306 307 307 307 307 308 308 308 308 309 310 317 315 311 318 317 321 325 328 333 335 341 341 346 344 343 342 341 344 349 350 351 351 350 347 345 345 343 343
307 306 306 305 305 306 306 306 307 307 307 308 308 309 308 312 314 316 311 316 319 320 320 323 328 333 334 339 340 340 339 338 336 336 340 347 349 351 351 348 346 345 345 344 344
306 305 305 306 307 307 306 306 307 307 307 308 309 310 310 311 320 316 312 318 319 320 319 322 330 332 333 336 335 336 337 332 343 344 347 349 351 351 348 346 346 346 345 344 345
308 305 305 307 308 308 306 306 308 308 308 309 309 312 313 313 320 318 316 318 319 318 320 321 330 330 332 332 331 333 329 337 346 348 349 350 354 351 349 347 346 345 346 346 345
311 308 305 306 309 308 305 308 310 310 310 309 311 314 319 317 321 317 318 319 317 318 317 319 325 328 328 335 337 330 339 334 333 350 351 350 352 352 349 347 346 345 345 346 346
311 311 307 306 309 306 307 312 312 311 309 310 313 317 316 321 321 319 318 321 319 318 317 317 319 327 329 336 340 337 334 330 335 348 351 351 350 352 353 350 348 346 346 346 346
311 311 310 307 308 308 310 314 312 315 312 314 313 314 315 316 318 321 319 322 321 319 320 318 324 328 333 334 330 331 331 331 329 335 336 330 331 342 352 352 348 347 346 346 346
312 312 311 309 308 312 312 312 311 312 313 313 314 314 314 315 315 319 320 322 323 322 320 319 322 324 328 331 330 331 332 332 329 328 329 330 334 352 349 352 351 348 346 346 346
312 312 310 309 311 312 311 311 312 312 313 312 313 314 315 315 316 317 320 322 324 325 321 319 320 322 328 330 331 331 333 331 330 329 336 348 349 353 351 351 352 351 347 346 345
311 310 309 309 313 313 311 312 313 313 313 313 313 314 315 316 314 315 318 322 324 327 324 324 323 325 331 333 332 335 328 330 329 330 329 337 333 348 353 352 352 352 350 347 346
311 309 307 311 312 312 311 312 313 312 315 314 313 314 315 314 314 315 317 319 323 324 325 326 327 327 332 332 330 334 328 329 329 329 326 330 337 340 348 354 351 352 351 348 347
311 311 312 312 312 311 312 313 312 314 316 315 312 314 314 313 314 314 314 315 314 320 322 323 319 328 331 328 327 328 324 322 322 325 328 327 334 331 337 336 334 347 351 350 348
313 313 312 311 312 312 312 313 315 316 315 315 313 312 313 312 314 314 315 315 315 320 324 317 318 318 321 325 325 326 327 328 329 328 330 323 328 332 329 328 328 332 340 351 349
315 316 315 315 315 314 313 316 318 316 316 315 313 315 314 314 314 315 315 316 314 312 315 323 322 316 316 319 322 325 327 328 329 329 329 322 328 331 323 325 331 339 340 347 350
317 315 315 316 315 314 314 317 316 314 314 314 315 316 316 315 315 315 315 316 314 313 316 317 317 314 314 315 318 321 324 323 323 321 327 326 327 325 322 327 333 343 344 345 349
317 316 314 316 315 315 315 314 314 312 312 314 316 315 317 316 316 316 315 316 315 313 311 314 317 313 314 314 316 320 317 323 324 327 328 327 331 327 322 327 334 341 343 341 345
317 316 314 317 315 314 315 314 313 312 312 314 314 315 314 316 315 316 314 316 314 315 312 312 316 316 316 315 315 319 320 319 322 323 327 329 329 317 321 330 331 328 335 344 346
315 317 314 316 314 309 313 311 311 311 311 312 312 311 312 313 315 316 316 314 312 315 314 311 314 316 315 312 312 314 314 315 326 326 322 328 323 316 323 326 323 323 324 329 336
314 313 313 315 315 313 311 311 311 312 311 312 311 310 310 311 316 314 314 311 311 317 315 313 313 316 316 315 313 315 314 313 312 316 322 326 319 316 323 321 319 318 317 317 320
313 315 312 311 309 312 312 312 312 310 311 311 311 310 312 313 312 313 313 311 310 314 314 312 312 315 316 316 314 316 314 314 315 319 318 318 318 318 321 320 316 316 314 313 313
312 311 309 313 312 311 311 312 312 312 311 311 312 311 311 313 313 313 312 312 311 310 312 314 316 314 314 313 314 314 314 314 315 315 318 317 317 318 319 318 315 314 314 314 311
313 312 310 309 309 312 311 312 312 312 312 312 312 312 312 313 312 313 312 312 311 312 311 311 316 314 315 313 313 314 313 313 313 313 314 315 317 315 315 315 316 315 314 313 313
312 311 312 309 311 312 313 312 312 311 312 312 311 312 313 312 311 310 309 309 309 311 312 313 314 314 315 313 312 312 313 313 314 316 315 316 317 314 315 313 313 312 313 312 311

GFSSW_850_thetae_075.txt.gz
Theta_e
316 316 315 315 314 314 314 315 314 308 306 307 308 308 308 308 308 309 314 317 318 315 332 338 341 344 348 349 352 353 359 357 357 358 357 352 352 352 352 351 351 351 350 345 345
314 314 313 312 312 312 311 312 314 313 307 307 308 308 308 308 308 317 317 314 316 316 334 335 333 341 346 347 351 354 358 353 351 353 353 353 353 354 352 350 350 349 348 345 345
310 310 309 308 308 308 308 309 310 313 311 307 308 308 308 308 320 319 317 311 315 316 333 329 331 340 344 347 352 352 354 349 350 352 353 353 352 353 351 353 350 349 347 345 346
306 306 306 306 306 306 306 306 308 310 312 308 308 308 308 309 326 330 320 313 315 318 333 327 332 339 343 347 351 354 350 349 348 350 352 354 352 351 352 353 351 348 347 345 346
309 308 306 305 305 306 307 306 307 308 310 308 308 308 308 320 319 324 319 312 316 326 329 328 331 337 341 343 350 353 349 348 345 344 345 350 353 354 351 348 349 349 347 345 345
312 312 311 306 306 308 309 307 306 307 309 308 308 309 313 320 322 320 317 313 320 329 329 327 330 333 333 337 346 349 349 346 344 342 342 349 352 352 354 350 350 349 346 345 345
312 312 312 310 306 308 309 307 306 307 308 308 308 309 319 320 324 323 320 318 322 328 327 327 327 328 331 336 339 344 349 346 343 341 343 350 354 355 353 351 349 348 346 345 345
312 312 312 312 307 308 309 306 308 308 308 308 308 312 324 318 323 325 326 323 323 326 324 325 326 328 329 334 336 343 346 349 344 343 345 351 359 354 353 351 348 347 346 345 345
311 312 312 312 309 308 307 308 312 309 308 308 312 324 322 316 323 326 326 323 323 324 324 325 326 329 330 333 338 340 345 345 346 342 346 352 357 353 353 352 349 347 346 345 345
312 312 312 312 308 308 307 313 312 311 310 311 321 321 323 321 323 323 325 323 322 323 324 323 325 331 331 333 337 337 340 342 346 344 347 353 357 355 352 350 350 348 347 346 346
311 312 312 312 309 309 311 317 322 324 318 323 320 322 320 322 323 322 322 323 322 323 325 323 326 330 331 331 331 334 337 341 341 344 346 347 354 353 353 351 351 348 348 348 346
310 310 311 309 311 312 313 319 317 316 320 319 318 319 321 324 324 323 323 323 323 325 324 325 327 329 329 330 330 334 335 340 340 343 344 341 340 349 350 353 353 349 347 350 347
309 309 309 309 312 312 317 316 315 315 319 319 319 318 320 322 323 323 323 325 325 325 325 326 326 327 328 330 333 336 338 340 340 337 340 338 340 346 344 348 354 351 349 350 349
312 308 309 312 313 316 316 315 315 315 322 319 319 318 320 319 322 323 323 325 326 325 324 325 326 326 328 332 335 335 334 337 337 338 340 338 342 347 347 347 355 352 351 350 350
312 312 312 312 316 317 316 315 315 316 324 319 319 318 319 320 321 324 322 323 326 326 326 325 324 325 329 333 334 334 332 334 338 337 338 339 341 346 349 352 356 351 352 351 350
315 313 312 315 314 315 315 316 315 320 322 319 318 319 321 321 320 323 322 323 324 327 328 327 324 325 326 330 333 335 335 334 335 336 337 337 336 351 349 352 354 351 352 351 350
315 314 314 314 318 316 316 317 321 323 320 319 319 320 321 321 321 323 324 324 324 327 329 328 328 326 326 330 334 336 336 337 337 336 336 335 335 342 339 340 341 348 347 351 350
316 316 319 317 317 317 317 321 323 321 321 319 319 321 320 320 320 322 323 323 323 326 329 328 328 327 327 332 335 336 335 334 334 334 333 335 336 339 340 345 346 346 344 351 352
316 320 320 318 317 317 320 323 323 321 320 320 319 320 320 320 321 322 323 323 323 324 326 329 328 328 328 331 334 334 335 333 333 332 333 336 335 336 342 343 344 348 347 342 352
318 321 319 318 318 319 323 320 321 319 319 320 320 320 320 320 320 322 324 322 322 322 322 326 327 325 325 325 328 329 332 335 334 335 334 335 337 337 343 343 343 341 343 346 347
319 322 319 318 319 321 322 321 320 318 319 321 321 320 321 321 320 321 322 321 320 322 321 322 327 325 324 325 327 328 330 332 333 332 334 336 336 336 342 341 339 330 331 332 332
320 323 318 317 321 320 321 320 316 320 318 319 320 319 320 321 321 322 322 321 319 321 320 321 324 326 325 325 324 326 328 330 332 333 332 333 332 335 337 334 329 324 324 325 323
320 317 317 318 323 320 318 317 317 319 320 319 319 319 320 318 321 319 320 317 319 321 322 321 322 325 325 324 324 325 326 327 329 330 332 332 335 334 332 328 324 322 321 320 320
318 321 317 318 318 319 318 317 316 315 317 318 320 320 320 319 320 320 319 318 318 320 314 319 321 324 324 324 324 325 325 325 327 329 331 332 336 333 334 328 320 319 319 320 319
317 317 317 320 317 318 318 317 316 316 315 316 318 320 321 322 321 320 320 319 318 316 320 322 320 322 321 320 323 324 324 323 325 327 329 333 335 333 331 330 324 320 318 318 317
319 319 315 317 317 317 314 317 317 317 318 317 317 316 318 322 322 322 321 321 321 320 321 321 323 321 320 320 320 321 321 320 322 325 327 330 332 328 325 325 325 325 323 319 318
317 317 317 315 318 318 317 316 316 317 316 316 317 318 318 317 317 318 318 319 320 321 322 322 321 323 322 320 319 319 320 320 321 322 325 329 329 326 326 324 323 324 322 320 319

GFSSW_850_thetae_078.txt.gz
Theta_e
315 314 314 314 313 313 313 313 314 314 312 307 307 308 308 308 308 308 310 317 319 319 320 325 333 341 347 350 352 354 358 360 358 357 355 349 350 349 352 353 352 352 346 345 345
311 311 311 310 310 310 310 310 311 313 313 309 307 308 308 308 308 312 316 317 317 317 329 336 340 344 347 348 351 355 359 355 352 351 353 352 350 352 352 351 351 349 346 345 344
307 306 306 306 306 307 307 306 307 309 312 312 307 308 308 308 316 321 320 316 313 316 335 337 337 339 347 347 351 352 356 351 353 352 352 354 354 355 353 352 350 347 346 345 344
311 310 308 306 305 305 305 306 306 307 309 312 308 308 308 308 330 329 321 318 312 316 337 334 331 336 345 348 351 355 351 350 353 352 352 353 353 351 353 352 349 347 346 345 344
312 312 312 311 306 306 307 308 307 307 308 310 309 308 308 322 320 325 320 316 312 318 336 332 330 337 343 345 350 353 352 350 347 354 353 352 352 352 350 350 349 347 346 345 345
312 312 312 312 310 307 309 310 308 306 308 309 309 308 308 323 323 324 318 316 317 326 335 330 329 335 340 342 350 350 349 348 346 345 347 352 354 352 348 349 351 348 346 345 345
312 312 312 312 312 307 309 310 306 307 308 309 308 308 320 321 324 325 321 317 320 326 331 330 329 333 335 336 342 345 353 348 345 343 347 352 356 355 349 350 352 348 346 346 345
311 311 312 312 312 310 309 308 308 309 309 309 308 309 322 320 322 324 321 319 321 326 330 328 328 329 330 332 337 343 346 351 346 342 346 352 359 354 353 351 350 348 346 346 345
313 313 313 312 312 309 309 308 312 309 309 308 310 314 324 322 322 324 325 322 323 327 327 326 326 328 330 332 338 340 347 346 345 342 348 351 358 353 352 350 349 348 346 346 345
311 311 312 313 312 309 308 313 312 310 309 310 325 323 322 324 322 326 326 324 324 326 326 326 327 329 331 332 337 340 342 345 348 344 346 354 349 347 352 349 348 347 346 346 346
309 309 311 312 309 308 310 319 321 325 321 322 323 324 323 324 323 325 327 323 324 325 327 326 327 328 331 331 332 336 337 340 347 344 345 356 354 356 352 351 349 347 347 346 345
310 308 310 309 310 312 313 323 318 318 320 321 321 321 322 324 324 323 324 324 324 326 326 327 326 328 330 331 331 332 334 337 343 345 352 349 350 353 352 351 349 349 349 346 346
312 308 310 310 313 313 317 319 317 317 319 322 321 320 323 325 325 324 323 324 324 325 325 326 326 326 329 330 330 330 331 337 344 343 346 347 355 355 354 351 352 350 349 347 348
313 311 311 312 315 318 318 317 316 317 321 322 320 320 321 324 326 324 324 323 325 325 325 325 327 326 328 329 330 331 333 336 342 342 342 342 347 351 352 355 354 350 348 349 350
315 312 313 313 316 319 318 316 317 317 325 321 320 320 320 322 323 324 324 324 328 325 325 326 326 326 326 329 330 333 334 335 339 340 338 338 340 345 347 359 358 352 349 349 349
315 313 312 317 317 317 315 317 317 320 325 320 320 320 322 322 322 324 324 325 325 327 326 325 325 326 326 328 332 334 335 333 335 339 338 338 339 355 353 348 352 354 351 350 350
317 314 316 317 319 318 317 318 322 323 324 320 319 320 321 323 322 325 325 324 326 327 328 328 328 325 326 328 331 334 336 335 336 339 338 336 338 349 348 347 344 349 353 348 351
315 318 319 319 320 319 319 322 326 326 322 321 320 320 322 323 322 323 324 324 325 326 328 330 329 329 328 326 330 333 335 336 337 335 335 334 337 345 345 347 345 347 348 353 352
317 320 320 322 320 319 322 326 325 323 321 321 320 321 321 322 322 322 324 325 325 325 327 330 330 328 328 327 329 334 336 336 334 334 334 337 343 345 346 348 350 349 346 348 348
317 322 323 318 320 322 323 323 322 320 320 322 322 321 321 321 321 323 323 324 325 324 324 327 330 329 327 327 330 331 333 335 335 336 339 338 344 348 347 346 346 342 338 336 337
317 323 322 317 319 322 326 322 321 319 319 322 323 323 322 322 322 324 325 324 323 323 323 325 329 329 328 328 331 333 335 332 333 335 337 341 342 344 346 344 340 335 331 327 330
323 325 320 317 322 321 322 320 318 320 318 319 320 322 323 323 323 323 324 322 320 321 322 323 324 330 327 326 327 329 331 331 335 338 335 339 341 340 339 335 332 330 329 323 322
323 319 318 320 324 323 319 319 319 321 320 320 321 319 321 321 324 323 322 319 320 322 324 324 323 327 327 326 326 325 327 328 330 332 338 337 340 337 333 331 327 327 326 324 321
322 321 319 318 319 320 319 318 318 316 319 320 321 320 319 320 319 322 320 319 319 320 316 321 321 326 328 326 325 326 326 327 328 329 331 336 342 338 334 331 326 324 323 322 322
319 318 319 320 318 319 319 318 318 318 316 317 320 321 322 324 319 320 321 319 319 318 319 321 321 323 324 323 322 325 325 326 326 328 333 338 341 337 334 329 326 323 323 322 320
320 321 317 318 319 320 315 318 318 318 320 318 318 317 319 325 324 325 323 321 319 320 320 321 322 325 324 323 322 323 325 325 325 325 328 334 335 333 329 326 325 324 323 322 321
319 319 320 317 320 319 317 317 317 318 317 317 318 319 319 320 319 321 321 322 322 323 322 321 322 325 325 322 322 322 322 322 322 323 333 336 332 329 329 328 327 326 324 322 321

GFSSW_850_thetae_081.txt.gz
Theta_e
315 314 314 313 313 313 312 313 313 314 316 315 307 307 308 308 308 308 310 314 317 321 320 323 317 337 338 348 349 352 355 359 357 354 352 349 350 350 352 352 348 346 346 345 347
307 307 307 307 307 308 309 309 310 311 312 315 311 307 308 308 308 310 312 313 318 319 318 327 329 337 336 347 349 349 354 355 352 350 351 349 350 353 348 353 351 345 345 345 347
311 311 310 308 306 306 306 306 307 307 309 312 313 308 308 308 310 317 321 314 316 317 316 331 337 341 344 347 350 345 354 352 349 349 350 351 350 353 352 352 347 345 345 345 347
312 312 312 312 311 306 306 306 307 307 308 310 313 308 308 308 330 330 323 317 313 316 321 337 338 340 339 346 351 353 351 350 351 352 352 354 353 352 351 351 346 345 343 345 345
312 312 312 312 312 310 307 309 309 308 307 308 312 309 308 318 314 322 322 319 315 316 324 337 338 333 335 342 350 350 347 351 352 352 353 354 354 352 351 349 346 345 344 344 344
312 311 311 312 312 313 308 309 310 307 306 308 311 309 308 317 327 325 322 317 313 316 334 336 335 331 335 339 350 345 345 346 352 351 351 352 352 350 350 347 346 345 345 344 344
312 312 312 312 312 312 310 309 309 306 308 308 309 308 310 313 327 325 323 318 313 317 334 334 332 329 333 336 340 350 344 347 349 352 352 353 354 354 349 350 347 345 345 345 343
311 311 312 313 312 312 309 309 308 310 309 309 308 308 312 320 321 324 321 318 318 319 332 331 330 329 329 331 332 347 347 351 346 346 354 351 358 350 346 350 348 346 346 345 344
310 309 310 312 313 312 309 308 312 309 309 309 308 312 323 322 320 324 323 320 319 323 329 330 328 328 328 327 327 334 341 346 348 346 352 351 356 352 348 350 348 347 346 346 345
311 308 310 311 312 310 308 312 312 310 308 308 321 321 320 324 321 323 324 320 320 323 327 328 326 325 324 326 328 336 338 339 345 343 352 348 347 350 349 350 348 347 346 346 345
312 308 310 310 309 309 308 317 321 322 316 318 321 324 324 325 322 323 326 324 323 325 325 326 324 324 325 327 329 332 336 339 345 345 348 347 344 345 348 349 349 347 347 346 345
312 310 310 309 311 312 311 318 321 317 318 320 322 322 322 324 323 326 327 324 324 324 325 324 324 325 326 328 329 329 329 334 344 350 350 347 346 341 339 347 348 346 347 346 346
315 311 310 312 313 313 315 318 316 316 317 318 320 322 322 324 324 325 326 324 323 323 324 324 325 327 325 327 329 328 327 330 344 344 349 350 355 347 345 351 348 347 347 346 346
315 311 313 314 317 318 318 318 316 317 316 321 322 321 321 325 325 324 324 325 323 323 323 323 324 325 324 325 327 326 327 330 344 343 349 350 353 352 355 351 349 348 348 346 346
314 313 311 312 313 317 316 316 317 317 322 323 321 320 320 322 325 325 323 324 324 323 322 323 322 323 324 325 326 327 328 332 340 340 341 349 349 352 353 355 351 350 348 346 346
316 314 314 316 319 320 319 318 317 317 325 323 320 320 319 321 322 324 325 324 324 325 323 323 325 323 324 325 325 328 329 332 336 338 341 335 340 352 357 354 353 347 348 348 347
314 316 316 317 318 320 319 318 320 327 325 323 320 319 319 321 321 322 324 323 323 325 324 325 324 322 324 324 325 327 330 332 332 338 342 336 339 352 351 351 348 346 338 346 349
315 317 318 320 319 320 320 324 329 324 324 323 323 319 318 320 321 324 324 323 323 323 323 325 326 326 323 324 325 327 329 331 335 335 335 331 350 348 344 342 341 338 344 349 351
313 317 322 321 321 320 323 325 326 322 322 322 320 319 319 321 321 321 323 323 322 322 323 328 328 327 326 325 324 327 328 329 331 329 330 342 348 346 340 341 343 342 345 344 348
316 317 322 322 322 321 322 324 323 321 319 322 323 322 322 322 322 320 324 323 324 323 323 327 326 326 328 326 324 323 331 330 330 336 335 351 351 354 349 345 335 331 332 334 339
316 321 322 321 321 321 323 324 321 319 318 321 321 322 322 323 324 326 324 322 320 321 320 322 323 328 328 324 323 331 331 332 329 331 332 345 347 342 344 336 330 326 325 329 334
320 324 324 317 322 323 323 319 318 320 320 319 320 321 322 323 324 325 324 323 319 320 320 322 320 328 328 326 327 326 331 331 329 331 335 342 343 339 335 331 328 325 323 324 326
320 323 318 321 323 323 319 318 318 318 319 321 320 319 319 321 324 324 323 319 319 321 321 320 321 323 328 326 324 324 325 324 324 325 333 340 342 332 330 330 327 324 322 322 324
320 322 320 318 318 319 320 318 318 315 317 318 321 320 319 320 319 321 322 319 319 319 317 320 319 321 327 327 324 321 322 323 324 324 337 337 339 333 329 326 325 324 323 322 321
322 317 317 317 318 317 319 319 318 318 317 317 320 321 322 322 323 320 322 320 319 319 319 318 320 321 324 325 323 321 322 324 323 326 336 340 339 333 328 325 324 322 321 321 321
319 319 320 318 319 321 316 318 318 317 318 319 319 319 323 323 323 324 323 322 321 321 319 318 321 323 323 323 322 321 322 324 324 333 336 337 337 330 326 324 324 323 321 319 320
320 321 323 322 320 317 316 316 316 319 316 317 318 320 321 320 320 321 320 320 323 322 321 320 322 323 323 324 324 322 322 320 330 332 332 337 330 327 325 325 324 323 322 322 320

GFSSW_850_thetae_084.txt.gz
Theta_e
307 307 307 308 308 309 311 312 313 314 314 315 315 309 307 308 308 309 310 313 317 321 320 324 316 332 336 338 348 352 356 357 355 352 350 349 351 351 350 347 345 346 346 346 345
312 312 311 309 307 306 306 307 309 309 311 312 314 314 307 308 309 310 312 312 316 321 319 321 317 332 331 338 348 351 351 353 351 349 350 350 351 352 351 348 347 345 347 347 346
312 312 312 312 312 309 306 306 306 307 308 310 312 314 308 308 309 318 319 312 316 320 318 318 330 332 330 341 346 347 354 351 350 347 348 350 351 350 348 351 346 345 347 348 348
312 312 312 312 312 312 309 307 308 308 307 308 311 313 309 308 329 328 323 315 315 318 317 321 328 332 338 344 351 347 348 350 349 348 349 351 351 347 351 351 345 346 347 347 347
311 311 311 311 312 312 312 308 309 309 307 307 309 313 309 310 311 322 320 317 313 316 316 329 335 337 336 338 350 351 349 352 351 350 351 353 353 351 351 348 345 346 347 347 346
312 312 312 312 312 312 312 309 309 309 306 307 308 311 309 311 322 323 323 319 314 316 318 335 337 336 332 333 349 349 346 353 352 351 354 352 352 350 350 347 345 343 346 347 346
310 310 310 311 312 312 312 310 309 307 308 308 309 310 309 313 325 325 324 322 314 316 328 336 335 336 331 329 334 345 346 348 349 352 353 352 353 352 349 347 344 343 343 345 346
311 309 308 310 312 312 312 309 308 310 309 309 309 309 313 319 322 319 323 318 315 315 332 333 334 334 330 328 339 349 345 348 350 351 351 349 355 351 349 346 345 344 344 344 344
312 310 308 310 312 312 310 308 311 309 308 308 308 308 314 321 319 321 323 319 313 317 329 331 328 328 327 325 324 340 350 350 352 352 352 349 353 351 348 349 345 344 344 344 342
313 310 309 310 309 309 309 311 314 315 308 308 319 320 319 323 321 322 323 320 319 320 322 324 325 322 320 322 326 327 335 341 351 353 354 352 352 349 348 349 346 345 345 345 343
315 311 309 309 310 310 309 317 321 320 315 314 319 323 321 323 321 323 323 320 320 320 322 326 321 321 322 322 325 327 329 336 347 350 349 352 348 348 348 351 348 346 345 345 344
315 311 310 312 313 312 313 317 316 318 315 317 317 319 321 321 322 322 323 321 320 321 322 321 322 321 323 325 326 327 328 329 350 348 346 349 352 348 348 350 349 347 345 345 344
314 313 313 315 315 317 317 318 316 317 316 316 317 318 321 321 322 323 323 325 321 321 322 321 323 324 325 325 325 324 326 328 345 349 346 348 350 345 343 341 349 348 346 345 345
315 314 310 311 316 317 316 317 317 317 310 314 317 320 321 322 322 324 326 324 321 321 322 322 323 325 325 325 323 322 324 328 345 342 345 346 344 352 346 344 348 346 345 345 346
316 314 313 316 316 318 318 318 317 317 318 323 321 320 320 323 324 323 325 325 321 321 319 320 322 322 322 324 321 323 324 327 338 339 349 349 350 346 350 354 349 347 347 346 345
314 314 315 317 318 319 320 319 318 314 321 325 320 318 318 320 321 323 323 324 323 322 322 320 323 320 320 322 322 324 328 335 334 336 340 343 348 346 354 352 351 349 347 346 346
314 315 316 318 319 320 320 321 319 326 323 325 321 320 316 318 319 320 322 322 321 323 322 322 323 321 321 321 320 323 324 328 329 337 339 334 347 343 349 351 349 349 348 347 346
314 315 318 319 319 319 321 319 322 323 323 322 322 319 316 317 318 320 321 321 320 320 320 321 323 323 323 320 321 322 324 328 333 334 335 337 348 345 344 349 349 348 346 343 347
314 315 319 321 320 320 321 319 320 321 321 321 319 318 318 317 319 321 320 320 321 319 320 322 325 325 325 323 321 323 325 323 328 327 328 346 345 340 340 337 336 337 340 344 345
316 319 322 320 322 322 316 321 321 320 321 320 319 319 321 321 322 320 322 320 320 319 318 321 324 322 325 324 322 320 324 328 324 333 333 349 348 346 343 334 331 330 333 337 344
319 321 322 321 322 321 316 319 320 320 320 319 318 320 319 322 322 323 321 319 318 318 318 317 318 320 324 324 322 324 326 327 324 325 330 345 345 343 337 331 328 326 329 334 339
318 319 323 319 318 317 318 319 318 316 318 316 317 318 321 321 321 323 322 319 319 320 319 320 314 318 327 323 323 326 327 325 329 331 335 338 347 336 331 329 325 325 326 333 336
317 320 320 319 316 316 316 316 315 313 315 316 318 317 318 321 322 322 321 318 319 318 316 317 315 319 322 322 320 319 319 319 320 322 334 332 340 330 329 327 323 323 324 329 333
318 319 319 317 315 313 315 314 314 315 315 316 318 318 317 317 318 319 320 318 318 317 319 318 313 318 321 325 322 320 319 319 318 320 334 335 336 330 327 325 323 322 322 328 331
320 318 317 311 312 313 313 314 316 316 316 316 316 319 318 318 320 322 321 319 318 318 317 315 318 320 321 320 320 320 320 321 320 322 333 335 334 328 325 323 322 322 322 322 324
320 321 322 319 317 312 311 312 314 314 315 316 319 320 319 319 320 321 320 318 321 319 317 312 320 320 320 324 322 320 320 325 331 335 336 333 330 324 323 322 321 321 321 321 321
320 321 323 321 313 311 312 315 317 316 317 317 318 317 316 317 319 320 320 319 316 319 316 318 316 316 321 322 322 320 319 320 330 335 334 335 329 324 323 323 322 320 320 320 321

GFSSW_850_thetae_087.txt.gz
Theta_e
311 311 311 309 307 306 306 308 310 312 312 314 315 316 311 308 308 309 310 312 312 322 320 321 321 321 337 340 346 352 355 355 355 351 350 348 351 349 347 347 345 346 345 346 346
311 311 312 312 312 311 307 306 306 308 309 310 313 315 316 309 309 310 311 311 316 320 320 320 318 322 336 333 346 349 349 352 350 346 349 350 351 350 347 346 347 346 346 345 343
311 311 311 311 312 312 312 307 306 307 307 308 310 313 316 310 309 318 317 311 314 320 319 320 319 329 328 338 343 347 352 352 347 347 350 349 350 349 345 348 346 346 345 344 344
311 311 311 311 311 311 312 310 308 309 308 307 308 311 315 310 317 326 321 314 315 319 318 319 325 328 335 339 347 347 347 351 348 349 350 350 350 350 347 349 346 344 345 344 344
311 310 311 312 312 312 311 312 308 309 309 307 307 310 314 310 311 323 320 314 314 318 317 319 328 333 338 338 348 349 351 353 348 348 351 351 351 349 350 350 346 347 346 344 345
311 309 308 310 311 312 312 312 309 309 308 306 307 309 312 309 314 319 319 316 314 317 317 319 330 334 336 334 348 347 351 350 350 348 352 352 349 350 347 348 346 347 347 347 347
312 310 308 309 311 312 312 312 309 308 308 308 308 309 312 318 321 325 322 321 316 316 316 320 336 335 333 328 334 349 351 349 351 351 352 352 352 351 350 347 347 347 347 347 347
314 311 309 310 311 312 312 310 308 310 310 309 308 309 313 317 325 324 323 320 318 315 314 322 335 333 333 330 336 347 347 352 349 351 352 348 356 350 348 346 347 346 347 346 346
314 311 310 310 309 310 309 308 311 309 308 308 308 308 313 317 320 321 322 319 317 315 313 328 327 327 327 323 323 329 347 347 355 351 351 350 354 350 348 348 343 345 346 347 346
314 312 309 309 310 309 309 317 318 316 308 308 313 319 318 321 319 319 322 320 314 316 319 322 324 321 318 321 326 329 340 345 354 354 351 352 352 349 348 349 344 343 343 344 346
314 312 311 312 313 310 311 316 318 319 316 315 316 318 318 321 322 320 322 320 318 320 321 323 321 321 322 322 324 326 327 328 348 352 353 353 352 351 349 350 345 344 343 342 343
314 313 312 315 314 313 315 316 316 318 317 317 317 316 317 318 320 320 323 319 318 319 320 320 321 320 321 322 325 326 327 336 350 348 350 352 351 348 348 350 347 345 344 342 341
315 314 310 312 317 317 316 316 319 318 315 316 316 316 318 321 321 322 321 320 319 319 321 321 322 322 324 324 325 323 325 327 349 347 346 350 351 349 348 347 349 348 345 343 341
315 314 313 312 316 316 317 319 319 318 310 315 316 319 320 320 320 322 322 322 320 320 320 321 322 324 324 325 322 323 322 328 349 344 351 345 351 347 346 344 344 348 349 344 342
313 314 315 315 316 318 319 319 319 316 321 321 321 320 320 321 322 322 323 324 319 320 319 321 321 322 323 323 322 323 322 325 345 338 343 348 344 342 344 345 344 348 348 345 343
313 314 316 317 317 318 319 320 319 316 324 323 321 319 318 319 321 322 323 324 322 321 320 320 321 319 320 321 321 322 324 327 329 332 342 340 342 343 349 346 346 348 346 344 344
313 315 317 318 319 319 319 321 316 320 321 323 320 319 317 317 318 320 321 320 320 320 321 320 322 320 320 320 319 321 322 327 338 339 340 335 344 340 343 347 347 347 346 345 344
313 316 318 319 319 320 320 314 320 321 322 320 320 318 319 316 318 319 320 320 319 319 318 320 322 321 320 319 319 318 319 325 333 335 336 338 343 344 339 345 348 347 346 346 345
314 317 318 320 320 320 321 316 316 319 319 320 317 317 319 319 318 320 320 319 320 317 320 319 322 323 324 321 319 321 323 321 323 324 328 344 343 342 338 333 338 341 342 342 345
316 318 321 320 321 322 315 319 318 318 320 318 318 318 320 319 321 319 318 318 319 318 316 319 322 320 323 323 320 320 320 324 322 331 332 346 347 343 344 336 334 336 335 338 341
317 322 322 322 321 321 314 317 319 318 320 317 318 320 319 321 321 321 319 318 317 319 317 316 316 318 322 321 320 321 325 323 321 323 331 345 343 340 338 332 330 331 332 338 341
318 316 322 320 319 314 315 317 316 314 316 315 316 317 320 320 322 320 318 317 318 319 318 316 311 317 324 319 318 317 320 323 326 330 330 334 340 332 329 327 328 328 330 335 338
318 318 319 321 314 314 314 315 313 313 313 316 317 314 316 318 321 320 320 317 316 316 316 317 314 319 323 320 319 317 318 317 317 323 332 334 336 332 329 326 326 326 328 334 335
319 312 316 317 314 311 313 313 313 316 315 315 316 316 317 316 317 320 321 319 317 318 320 316 312 317 323 323 320 320 318 318 316 319 326 328 337 333 328 324 322 323 326 330 335
320 315 318 310 312 311 311 313 315 315 315 317 319 318 317 318 320 321 320 317 318 319 314 314 318 318 320 319 319 318 319 322 320 321 329 332 334 332 326 322 322 323 324 324 329
320 320 322 318 313 310 309 313 314 314 315 316 318 317 317 318 319 320 319 317 320 317 316 312 319 318 320 325 320 320 320 319 331 332 331 329 328 323 324 323 322 323 322 321 323
318 320 322 319 309 310 309 313 316 315 316 318 318 315 314 316 318 317 318 317 314 316 313 315 314 316 322 318 326 326 320 319 327 331 330 333 327 322 321 321 321 322 322 321 321

GFSSW_850_thetae_090.txt.gz
Theta_e
311 311 311 311 311 310 308 306 307 310 311 312 314 316 317 313 308 309 310 311 312 319 319 321 320 330 338 341 345 351 355 357 354 351 351 348 349 347 346 345 346 346 345 344 343
311 311 311 311 311 312 312 309 305 306 308 309 311 313 317 317 311 310 311 311 312 322 320 321 321 324 335 337 343 348 349 352 350 346 350 349 349 348 345 346 345 345 344 344 343
311 311 311 311 311 311 312 312 307 307 307 308 308 310 314 318 310 315 316 311 312 321 321 320 320 330 341 335 340 348 351 351 347 347 349 351 350 347 346 346 344 345 346 344 341
310 309 310 311 312 311 311 312 311 308 309 308 307 309 312 316 312 325 321 311 318 320 322 321 321 335 335 337 346 345 347 350 347 349 350 350 349 346 347 346 342 340 339 340 341
311 310 308 308 310 312 312 311 312 308 309 309 306 307 311 314 315 323 320 313 317 319 319 323 325 335 338 339 347 346 350 348 349 349 349 349 350 347 347 345 343 342 342 343 344
313 311 309 309 310 311 312 311 312 309 309 307 306 307 310 312 313 317 318 313 314 318 318 320 329 338 337 336 346 347 350 348 349 350 350 350 350 346 346 347 345 344 343 344 345
314 312 309 310 310 311 312 312 310 309 308 308 308 308 310 317 317 322 320 313 314 317 317 323 332 335 334 331 333 346 349 350 348 350 351 350 352 350 348 346 346 345 344 343 344
314 312 310 310 309 310 311 309 309 310 309 309 308 308 312 316 320 324 320 317 316 316 317 318 334 334 333 330 337 346 346 352 351 351 350 349 355 351 349 346 347 347 345 345 344
313 312 309 309 309 309 309 311 312 312 309 309 309 310 313 316 321 323 322 319 317 316 315 322 323 329 326 322 323 335 345 348 354 350 351 351 352 351 347 347 346 347 346 346 346
313 313 311 312 312 310 311 318 318 317 309 309 310 317 318 320 320 322 319 319 316 316 316 321 323 319 318 320 327 336 341 343 353 349 352 353 350 349 348 347 346 346 346 346 347
314 313 312 315 312 312 311 314 317 317 316 317 316 316 316 320 321 319 317 318 315 318 319 321 322 323 325 321 323 329 331 334 344 349 353 353 350 350 347 348 345 346 346 346 346
315 314 311 314 314 315 315 316 317 317 316 316 317 316 316 316 318 319 319 318 317 317 319 319 322 321 323 321 324 325 326 346 349 351 350 346 351 347 348 349 344 343 343 346 347
314 314 313 311 315 317 316 317 317 318 314 315 315 316 317 319 319 320 321 318 317 320 320 321 323 320 322 323 323 323 325 327 348 347 348 349 352 351 347 348 349 344 343 343 343
312 313 314 314 316 316 317 318 318 318 310 317 319 318 319 320 319 321 322 320 318 319 319 322 322 322 323 324 322 324 321 329 349 348 350 347 355 350 348 348 346 348 345 343 342
310 313 315 315 316 317 318 318 320 315 320 320 321 319 319 319 320 321 322 322 318 319 319 322 320 322 323 323 321 324 321 326 346 340 345 348 344 337 347 349 347 346 348 343 342
310 313 316 317 317 318 318 319 318 315 322 321 320 319 316 318 320 321 322 323 321 319 319 320 320 319 320 320 321 323 322 326 329 334 343 342 343 339 346 346 346 345 346 347 342
311 313 316 317 318 318 319 321 315 318 319 318 319 318 318 316 318 320 320 320 319 319 320 321 321 320 319 320 318 319 318 326 338 340 340 334 342 337 342 342 342 343 345 347 343
312 314 317 319 319 319 320 313 319 319 320 318 319 315 319 316 318 319 319 319 318 317 316 320 321 320 319 319 318 317 317 324 339 338 338 338 341 339 337 339 346 345 347 344 343
314 315 318 319 320 320 320 315 315 317 318 318 317 318 318 318 317 319 318 318 319 317 320 318 321 320 319 317 318 320 318 317 322 322 333 339 341 340 338 339 341 342 344 345 344
315 317 319 320 320 321 315 317 317 316 318 316 318 318 320 319 320 319 317 317 318 317 316 317 320 320 321 319 320 320 319 324 320 329 331 344 343 339 344 340 340 338 338 340 345
317 320 322 321 320 321 314 315 318 316 318 316 317 320 319 321 321 320 317 317 317 317 316 314 316 319 320 320 318 322 325 319 320 322 334 342 341 337 338 337 337 335 336 339 340
318 315 321 320 317 312 314 315 313 313 315 316 315 316 319 320 321 318 317 316 316 318 318 315 311 318 321 318 317 318 319 320 324 329 329 332 335 331 331 329 332 332 334 337 341
318 318 319 320 313 311 313 313 314 312 313 313 316 316 317 318 321 320 317 317 317 315 316 315 314 319 319 318 316 317 316 315 316 323 333 332 330 329 327 326 328 328 331 333 337
319 311 314 318 312 311 312 313 314 316 316 315 316 315 317 318 319 321 321 319 319 321 319 316 313 318 319 319 317 318 317 319 314 320 325 326 333 335 328 325 323 325 330 332 335
318 312 315 310 311 309 311 312 314 314 314 317 318 317 316 318 318 320 318 318 318 317 314 314 318 318 319 318 318 319 319 321 328 318 327 326 332 330 327 323 323 325 327 330 332
319 319 320 317 312 311 308 312 314 313 314 317 317 315 316 318 318 318 317 316 318 315 315 313 319 318 320 320 323 324 320 324 331 332 331 330 332 324 325 324 322 324 326 327 329
318 320 321 315 308 309 309 313 314 315 315 316 316 314 313 314 316 315 315 314 311 313 312 314 314 317 321 317 325 326 322 327 329 329 329 332 326 321 321 322 322 322 323 324 325

GFSSW_850_thetae_093.txt.gz
Theta_e
311 311 311 311 311 312 311 309 306 307 310 312 312 315 317 317 313 309 309 310 311 318 322 321 323 340 344 345 346 350 356 358 353 351 353 349 350 349 347 346 346 346 341 344 343
311 311 311 311 310 311 311 312 309 306 306 309 310 311 315 318 317 313 311 310 311 318 321 321 325 331 334 336 344 349 355 354 349 348 351 350 349 347 346 347 347 347 345 344 343
310 309 309 310 311 311 311 311 312 308 307 307 308 309 312 317 315 314 317 311 311 320 318 321 321 333 341 334 343 349 354 351 349 348 349 349 349 346 346 347 346 346 344 345 345
312 310 309 308 309 310 312 311 311 310 309 309 308 308 311 315 314 324 320 311 311 319 321 321 324 340 342 338 344 348 349 350 347 349 350 349 348 345 345 347 345 345 343 345 345
313 312 309 308 310 311 311 312 311 312 309 309 308 306 310 314 317 320 319 310 316 321 323 322 327 341 341 341 344 348 350 348 349 350 349 349 347 346 348 345 345 346 345 344 342
313 313 310 309 310 311 312 312 311 311 309 309 307 307 309 315 313 317 318 312 320 322 323 324 333 342 339 339 344 348 350 349 349 350 348 347 347 346 346 344 345 344 344 344 343
313 313 309 309 309 310 311 311 310 309 309 309 308 308 309 315 316 321 315 313 319 319 319 326 337 338 336 333 335 349 351 350 350 350 350 348 350 348 347 345 344 344 344 345 345
313 312 309 309 309 309 309 309 310 310 309 309 309 309 311 314 317 320 311 311 315 317 318 327 335 334 334 330 338 349 351 355 350 349 349 349 355 349 347 346 345 345 345 345 346
313 312 311 312 311 309 311 315 314 314 309 309 310 310 313 315 317 321 315 315 315 317 319 325 331 330 327 328 347 345 354 353 353 349 350 350 351 349 347 347 345 346 345 345 346
314 313 311 314 311 311 313 316 316 317 312 313 311 317 318 319 319 322 317 317 316 315 319 320 324 331 326 328 341 350 349 350 354 352 351 351 353 349 348 348 347 346 346 346 346
314 314 311 314 312 313 315 315 317 316 317 317 316 316 316 319 320 320 319 314 316 317 322 323 333 338 333 327 329 344 345 345 345 350 351 351 353 350 347 348 347 347 347 346 346
313 313 313 312 313 316 315 317 317 317 317 316 316 316 316 316 318 318 317 316 316 318 321 326 334 331 328 325 327 331 338 337 351 350 350 350 351 347 348 347 347 347 347 347 347
310 313 314 312 315 316 316 317 317 317 316 315 315 315 316 317 318 319 318 317 317 322 325 326 330 325 327 326 327 328 331 350 349 349 345 346 348 348 348 349 346 347 346 346 347
310 312 314 314 316 316 316 317 319 317 318 321 320 318 319 319 321 320 320 318 319 321 326 329 324 326 325 327 327 330 327 335 351 350 354 346 352 346 348 350 349 346 345 346 347
310 311 314 315 316 317 317 318 319 314 323 321 322 319 319 319 320 320 321 320 320 322 324 326 325 325 326 327 326 330 325 331 348 347 350 347 350 345 348 351 352 349 346 344 344
310 311 315 316 316 317 317 319 316 319 321 321 320 320 318 318 320 320 321 321 320 322 323 324 321 325 326 324 326 326 330 335 341 344 343 348 347 344 352 352 350 348 348 346 343
311 312 316 316 317 317 318 320 321 322 320 320 320 320 320 319 321 322 322 323 325 324 325 324 323 322 322 323 323 324 324 334 337 341 334 339 350 343 347 345 346 346 348 348 344
312 313 316 317 318 319 320 320 322 321 321 320 319 317 321 318 320 321 324 325 321 322 323 325 325 324 322 324 324 325 326 331 337 340 339 341 343 344 342 342 345 347 346 348 346
314 315 316 318 319 320 320 322 320 320 319 320 320 321 322 319 319 322 322 325 324 323 324 324 323 322 321 323 324 323 324 327 333 331 338 343 345 344 342 344 346 346 345 347 347
316 317 318 320 320 320 321 319 320 317 319 318 322 321 323 322 323 323 321 319 321 320 320 323 324 323 323 321 321 324 324 327 327 336 338 347 348 346 348 345 343 344 343 345 346
317 320 321 320 319 320 321 320 319 316 317 318 319 322 322 324 323 323 320 318 318 319 319 321 323 324 324 325 325 325 326 326 329 331 334 339 344 344 346 345 342 340 340 340 342
318 322 320 320 320 315 321 318 314 314 314 317 317 320 322 322 323 320 320 319 316 319 321 319 323 325 323 320 320 322 327 329 328 334 338 338 340 336 339 342 340 339 340 339 342
318 318 318 319 319 318 317 314 315 317 316 318 318 319 319 321 324 322 320 317 318 318 320 319 322 326 324 323 323 326 323 323 328 335 339 333 336 334 334 336 335 336 336 337 339
318 318 314 317 312 316 316 315 317 315 317 317 320 318 320 322 322 323 322 320 319 322 319 318 320 326 327 325 323 328 328 321 326 329 336 334 339 337 337 337 332 330 332 333 337
317 316 313 317 315 313 314 315 316 317 316 318 321 319 319 322 321 322 320 320 321 318 318 321 323 323 323 324 325 326 332 333 325 325 331 332 334 338 338 336 333 332 330 331 334
319 320 318 317 311 314 313 315 315 315 317 320 319 317 320 322 320 321 319 320 319 319 321 320 325 322 324 323 326 325 328 335 334 334 334 335 335 329 333 330 328 330 329 330 331
319 321 319 313 312 315 315 316 317 316 315 316 317 317 318 316 316 317 314 312 312 317 320 321 321 325 326 323 327 328 326 327 330 333 333 334 334 330 330 329 330 329 330 329 329

GFSSW_850_thetae_096.txt.gz
Theta_e
311 311 311 311 311 311 311 312 309 307 307 311 313 315 316 317 316 313 311 311 311 317 321 326 335 344 346 348 349 350 358 358 356 350 354 351 352 351 350 350 348 348 341 344 347
310 310 309 309 311 311 311 311 312 309 307 308 310 312 314 316 317 317 313 310 311 317 325 326 333 342 345 346 347 352 358 356 352 348 353 351 351 351 350 350 348 342 344 346 346
312 311 309 308 309 310 312 311 311 312 308 308 308 310 312 314 317 314 318 311 310 317 326 323 331 342 347 346 348 352 356 353 350 349 350 351 351 349 350 351 349 346 346 346 346
313 313 309 309 309 310 311 312 311 312 309 309 309 308 310 314 320 324 320 314 310 319 325 323 328 341 347 347 347 351 351 351 349 351 350 351 350 349 348 347 347 345 345 346 346
313 314 309 310 310 310 311 312 312 311 311 309 309 307 309 318 319 316 319 312 310 325 323 323 325 339 351 346 346 351 351 350 350 351 350 350 348 347 348 346 346 343 345 346 345
312 313 309 309 310 310 311 311 311 311 310 309 308 307 311 319 318 314 319 311 321 323 323 323 326 340 346 345 346 350 350 349 350 350 349 348 347 347 347 345 344 344 345 344 344
312 312 310 309 309 309 310 311 310 309 309 309 308 308 314 317 316 321 321 324 323 322 324 324 328 342 341 337 340 348 352 350 351 350 349 348 350 351 346 345 345 345 344 343 343
313 312 311 312 310 309 309 310 311 309 309 309 309 309 315 314 316 321 319 323 323 320 322 326 339 340 338 335 348 353 353 358 352 351 350 348 355 348 347 344 344 343 345 345 345
314 313 312 313 311 312 317 317 318 316 311 311 312 314 317 315 318 319 315 317 318 319 319 325 336 337 334 341 353 351 358 356 356 349 351 349 352 351 345 345 343 344 344 345 344
314 313 311 314 312 314 314 315 317 318 315 315 312 320 319 321 320 319 317 318 318 319 319 326 335 340 336 341 354 353 356 356 358 353 348 352 346 351 347 345 345 344 344 345 344
312 313 312 313 313 316 316 317 320 321 320 320 319 319 319 321 321 320 318 318 318 318 322 323 336 344 339 336 335 347 349 353 353 352 351 352 351 351 349 348 346 344 344 344 344
310 312 314 312 314 316 317 318 319 318 320 319 318 318 318 319 321 321 318 319 319 320 323 325 332 338 339 332 335 343 350 351 351 352 352 351 352 350 349 348 348 344 343 344 344
311 311 313 313 316 316 317 318 318 317 321 320 318 319 320 319 321 321 320 320 320 320 324 325 327 335 335 331 334 339 346 345 353 350 348 351 351 348 346 347 348 346 344 345 346
311 311 313 314 316 316 318 318 318 318 323 323 322 320 320 321 322 321 320 321 319 320 322 324 327 332 335 337 334 338 334 345 353 351 354 346 354 346 344 348 348 347 347 346 347
311 311 314 315 316 318 318 317 319 316 323 322 322 320 321 323 322 321 320 321 321 320 324 326 327 331 333 336 334 335 331 339 344 348 350 351 350 348 345 347 352 350 346 345 345
310 311 314 316 316 317 317 318 317 322 324 322 322 322 322 322 323 321 322 322 322 322 324 327 327 329 330 332 332 330 332 336 342 346 351 346 345 346 347 347 346 349 349 347 346
310 312 315 316 319 317 317 320 325 323 322 322 322 322 323 323 324 324 324 324 325 325 323 326 327 327 328 331 331 331 334 337 340 343 342 346 345 343 341 348 346 349 349 349 346
312 313 315 316 317 319 320 324 323 322 323 322 322 322 322 322 324 325 325 325 325 325 324 327 327 327 326 328 330 332 333 337 342 343 340 339 347 344 346 346 347 349 349 349 349
314 315 316 318 319 320 323 322 323 322 321 322 323 323 322 322 323 325 325 325 325 325 325 325 326 326 325 326 327 331 333 333 335 337 339 341 340 345 345 347 348 349 348 348 350
316 319 320 319 319 320 323 320 322 321 321 322 324 324 324 322 322 324 324 325 326 325 326 326 326 324 325 325 325 327 329 334 334 339 339 340 341 340 350 350 348 350 349 348 350
317 320 321 320 320 322 323 322 321 319 319 321 322 324 324 324 323 323 325 323 324 325 325 326 326 325 325 325 325 326 327 327 332 334 336 338 341 347 348 350 349 347 347 350 351
320 324 321 320 323 321 322 320 316 317 318 320 321 323 325 325 323 324 324 324 320 323 325 326 326 329 325 326 326 326 326 328 329 335 334 336 343 344 347 347 347 344 344 344 345
322 323 320 320 323 322 321 318 318 318 318 319 321 322 324 325 326 323 323 321 321 322 325 325 326 329 328 327 326 326 327 329 329 329 335 335 337 343 344 346 345 345 344 342 340
322 323 320 320 319 320 320 319 319 318 318 319 322 322 323 325 325 324 323 321 321 322 318 320 326 329 328 326 327 329 328 328 329 329 330 333 338 346 346 345 342 342 340 339 340
320 322 318 320 319 319 319 318 318 318 318 318 323 322 323 324 324 323 323 323 322 322 323 325 328 328 328 327 328 328 328 327 328 328 330 331 333 343 345 345 342 339 339 338 340
324 323 320 320 319 319 316 319 318 317 319 318 321 321 322 324 324 322 322 322 322 322 324 326 326 327 328 328 327 331 332 330 329 329 329 332 333 336 341 342 341 339 335 338 339
321 322 324 317 319 320 320 319 317 317 318 320 320 321 321 320 319 320 319 319 319 323 325 325 327 327 328 327 329 329 329 330 332 332 333 331 339 337 340 339 339 339 337 338 338

GFSSW_850_thetae_099.txt.gz
Theta_e
310 310 309 310 311 311 311 311 312 310 307 309 313 315 315 317 317 316 318 316 315 316 324 328 335 342 346 352 352 352 360 359 355 352 352 349 350 348 350 349 349 347 344 346 346
312 311 310 309 309 310 312 311 311 312 308 307 310 313 314 316 317 321 320 312 310 315 322 328 335 346 349 351 351 352 360 356 353 349 352 351 350 349 350 349 349 344 345 346 346
313 313 310 309 309 310 311 312 311 311 311 308 308 310 312 314 322 322 320 312 311 315 327 328 334 345 349 349 349 352 358 354 353 351 351 351 350 350 349 350 345 346 346 346 346
313 313 311 309 310 310 311 311 312 311 312 309 309 309 310 314 326 326 318 317 311 315 328 327 330 345 349 352 349 352 352 352 351 351 351 351 351 349 347 347 346 346 346 346 345
311 313 310 309 310 310 311 312 312 311 312 309 310 308 309 321 323 322 321 316 311 321 328 326 327 340 350 351 349 351 352 351 351 350 351 350 348 348 349 347 346 346 346 346 344
312 313 310 310 310 310 311 311 311 311 311 310 309 307 311 322 320 324 321 311 316 325 325 325 326 331 346 350 350 351 351 350 351 352 352 350 348 346 347 345 345 345 346 345 344
313 312 311 311 310 310 310 310 310 310 310 310 309 308 319 320 319 326 322 319 320 324 326 324 325 330 346 348 346 350 353 351 352 351 350 348 349 349 346 345 345 345 345 345 343
314 313 311 313 311 313 316 317 314 311 312 311 310 312 321 317 319 325 324 325 322 323 325 325 326 333 344 341 349 356 353 358 353 350 350 350 356 347 345 345 345 344 344 343 342
314 313 312 313 312 314 315 316 317 318 315 314 318 320 321 316 319 323 322 325 323 323 324 325 333 340 342 345 355 356 359 358 356 351 351 352 355 350 345 344 344 343 343 343 343
312 313 312 314 313 315 316 316 317 318 317 316 319 321 320 321 322 320 319 320 320 321 322 322 335 342 343 346 360 356 356 357 360 354 352 349 348 349 348 346 343 343 343 343 341
311 312 313 313 314 316 317 321 324 327 324 323 321 320 321 322 323 321 320 319 319 321 324 323 334 342 342 343 346 349 351 352 356 350 350 351 348 350 347 345 348 344 343 343 342
311 311 313 313 315 316 317 321 320 320 322 321 319 319 321 322 324 322 321 321 320 322 324 325 331 336 341 340 340 346 351 350 354 350 348 351 350 349 347 343 345 347 344 344 343
311 310 313 312 315 316 318 319 319 320 324 321 320 320 319 320 323 323 321 321 322 321 324 326 327 330 339 341 338 341 351 347 348 352 347 350 352 351 348 342 343 348 346 343 343
311 310 313 314 317 319 320 321 320 321 326 324 323 322 322 321 322 324 322 322 322 322 324 326 327 329 340 341 337 340 347 349 351 354 363 350 358 352 348 346 345 349 346 343 343
310 311 313 315 319 321 321 320 320 321 328 323 323 323 323 323 324 323 323 323 324 322 323 324 326 328 335 337 338 338 337 351 353 352 353 353 352 353 348 348 346 349 347 344 345
310 311 313 315 317 319 320 320 321 325 326 324 323 324 324 323 324 323 322 323 324 324 323 325 326 328 332 333 336 337 335 338 347 350 355 349 348 353 349 348 345 344 347 347 346
310 312 314 317 322 320 320 322 329 325 323 324 324 323 324 324 325 324 324 325 326 325 324 325 328 329 329 331 334 338 337 340 343 356 349 346 347 346 346 344 345 345 348 347 345
311 313 315 316 320 320 321 327 327 322 324 322 323 323 322 324 325 325 325 326 326 326 327 324 327 329 328 331 333 337 337 341 345 344 345 347 347 346 342 340 340 346 348 349 347
314 315 319 321 319 321 324 330 325 323 322 323 324 324 323 323 324 325 326 326 326 327 327 326 326 328 328 329 331 333 339 338 339 340 345 343 349 348 343 342 345 348 347 349 349
316 321 322 322 321 322 327 320 324 322 322 323 324 327 326 324 322 325 326 326 326 326 327 329 328 328 327 327 328 329 333 338 338 342 344 344 344 344 350 350 348 348 350 350 349
317 322 323 321 322 323 327 324 322 320 319 322 323 324 326 326 324 324 326 326 327 328 326 328 328 328 327 327 328 328 329 333 336 336 339 345 346 345 350 350 351 350 350 349 350
322 324 323 321 325 324 324 321 316 319 319 320 322 323 325 327 325 324 327 326 323 326 327 327 328 329 327 327 326 327 327 330 333 338 335 336 350 344 348 349 350 352 352 354 354
324 325 322 321 326 324 323 320 319 320 319 319 322 322 325 325 327 326 325 324 323 324 327 327 327 329 330 327 326 326 327 327 328 330 333 334 345 345 349 349 349 349 348 350 350
325 325 322 321 323 322 322 321 321 319 318 318 322 322 323 325 325 326 325 324 323 323 320 323 327 328 331 330 328 327 327 327 328 329 329 334 348 349 350 350 348 347 346 345 345
324 325 323 323 322 321 321 321 319 320 319 318 322 322 323 325 325 326 325 324 324 324 325 326 328 329 329 330 330 327 326 327 328 330 331 331 337 346 349 349 347 345 344 343 344
326 324 321 322 321 321 317 322 319 318 319 320 320 322 322 325 327 326 324 325 326 324 326 328 331 331 330 329 329 328 329 328 328 328 329 330 338 344 345 347 346 345 345 345 344
324 324 325 321 321 322 323 321 319 317 318 320 321 322 322 323 322 323 322 323 325 324 326 328 331 333 333 329 330 331 331 330 329 329 329 332 339 339 344 345 346 345 343 343 343

GFSSW_850_thetae_102.txt.gz
Theta_e
312 311 310 309 309 310 311 311 311 312 310 307 310 313 315 317 317 316 317 319 318 315 321 326 335 340 344 347 349 353 355 357 355 350 351 343 343 344 346 346 346 347 346 346 346
313 313 312 309 309 309 310 311 311 311 312 308 308 311 313 315 317 317 318 321 317 313 317 329 331 342 346 349 352 354 358 354 349 349 349 348 346 348 349 348 347 345 346 345 345
312 313 313 309 310 310 311 311 312 312 312 310 308 309 312 314 320 325 323 320 313 312 321 329 331 346 348 350 350 352 357 353 352 352 348 350 348 349 348 350 346 345 345 344 343
311 313 311 310 310 311 311 311 312 312 311 311 310 309 310 312 329 326 322 317 312 312 324 329 331 344 348 352 350 352 351 353 353 353 349 350 350 348 348 346 345 346 346 343 344
312 313 310 310 310 310 311 311 312 312 312 312 310 310 309 324 323 325 320 316 313 314 326 330 329 337 348 350 351 352 351 352 352 351 350 351 351 350 349 346 346 346 346 343 343
313 313 311 311 310 310 310 310 311 311 311 310 310 309 310 322 323 325 324 317 314 318 326 330 328 331 344 347 351 352 351 351 352 351 351 350 347 348 347 346 345 346 345 343 343
314 313 311 312 311 313 314 314 312 311 311 310 310 309 318 322 320 324 325 317 316 320 326 327 327 329 334 345 350 349 354 352 354 354 352 348 348 349 344 345 345 345 344 343 342
313 313 311 313 313 315 316 317 317 314 314 313 311 309 322 319 321 325 325 322 318 322 327 327 326 327 331 344 346 353 353 359 354 353 349 349 356 349 344 344 345 344 344 344 343
311 312 311 313 313 315 315 315 317 319 318 315 322 318 323 318 317 323 325 325 324 322 325 327 326 328 333 345 352 356 361 359 357 352 352 352 355 349 344 344 344 344 344 344 343
311 311 313 313 314 316 316 317 320 316 319 316 317 323 322 321 320 325 323 325 325 324 325 325 327 332 340 345 356 356 359 357 359 355 352 353 351 349 346 344 343 344 343 342 342
311 310 312 313 314 316 316 321 326 325 325 324 323 321 323 323 323 322 321 323 323 323 325 324 326 336 343 344 346 346 356 357 348 347 352 352 350 348 349 349 347 344 343 343 343
311 310 312 312 314 316 316 321 321 321 323 325 320 319 321 323 323 323 321 321 321 322 323 326 325 330 338 343 351 349 350 353 343 340 350 351 351 347 347 347 345 347 344 343 341
311 310 312 312 314 316 318 321 321 322 325 323 320 320 320 320 323 324 322 322 322 322 323 325 326 328 334 339 343 348 349 347 345 340 343 351 353 352 348 345 344 344 346 345 343
310 310 312 313 318 321 322 322 322 323 327 325 323 323 321 321 322 324 323 323 324 323 322 324 326 328 330 335 342 352 345 345 345 343 350 350 358 352 346 345 342 343 345 347 346
309 310 312 313 320 320 322 322 322 323 332 324 324 323 324 322 323 324 324 322 324 324 323 323 325 327 328 333 341 341 345 346 345 344 347 352 353 351 350 348 346 343 344 346 346
309 310 312 314 316 321 321 323 323 327 330 324 324 324 324 323 325 325 325 324 324 325 323 324 325 327 327 332 336 336 342 345 344 346 355 351 353 356 354 351 348 343 344 347 345
309 310 313 317 324 322 322 322 329 331 324 325 324 324 324 324 325 325 324 325 325 326 326 324 324 327 328 329 333 338 340 350 355 354 356 351 351 356 350 347 347 344 345 345 346
309 311 314 318 320 322 322 326 332 325 324 323 323 323 322 326 325 325 325 324 325 327 326 325 324 328 329 330 331 336 340 340 351 352 356 351 353 353 346 343 342 343 344 346 345
310 315 316 320 320 320 324 331 331 324 323 323 324 326 326 324 324 326 325 325 326 326 328 328 326 326 328 329 330 333 335 337 339 342 348 351 351 348 342 342 343 344 345 342 340
312 322 323 323 322 323 326 328 326 323 322 322 323 326 327 327 325 325 326 326 326 326 326 328 330 328 328 328 329 331 333 335 342 344 348 348 350 351 347 346 345 346 345 340 340
314 324 324 322 322 323 328 327 324 321 319 320 322 324 325 328 327 326 326 327 327 328 328 327 330 331 328 328 328 328 329 331 334 340 343 346 351 347 348 345 346 347 348 347 349
323 324 325 322 323 325 327 325 319 319 319 320 321 321 323 327 327 328 329 328 325 327 329 329 329 330 330 328 328 327 328 329 333 337 337 338 347 344 345 348 347 351 349 353 350
324 325 326 322 325 328 325 322 319 320 319 319 320 323 323 326 326 327 328 326 325 325 328 328 329 330 330 330 328 327 327 328 328 331 336 336 351 345 337 350 353 355 356 355 357
324 329 325 322 323 326 326 322 321 321 320 319 320 322 323 325 326 326 328 325 324 324 322 325 327 329 329 332 331 327 326 327 327 328 329 331 346 352 351 353 350 352 354 352 354
323 327 325 323 323 323 322 323 321 320 320 319 321 322 323 326 327 328 326 327 324 323 324 326 328 329 328 329 330 331 327 327 329 328 330 333 343 345 347 351 349 348 349 349 348
324 328 327 324 323 322 318 321 321 320 320 321 321 321 322 323 327 327 326 325 328 327 326 327 329 331 333 330 331 331 331 327 327 328 329 335 347 342 342 345 348 346 345 346 346
326 327 327 324 323 322 322 323 321 320 319 318 321 322 323 325 323 324 322 324 327 327 327 329 332 334 337 334 332 331 332 331 328 328 329 345 344 337 335 335 348 347 346 347 345

GFSSW_850_thetae_105.txt.gz
Theta_e
312 313 313 310 309 309 310 311 311 311 312 311 308 310 314 316 316 316 314 314 316 316 316 321 330 338 338 340 349 351 348 354 354 347 343 347 348 347 344 344 347 347 344 342 347
311 312 313 309 309 310 310 311 311 312 311 312 309 308 312 315 316 317 316 318 319 317 316 325 328 336 340 347 350 352 354 350 348 348 348 344 347 347 347 346 347 346 342 345 346
311 312 312 310 310 310 310 311 311 312 311 312 310 309 310 313 315 324 322 317 318 316 314 326 329 335 343 349 351 352 351 349 345 345 350 346 348 348 347 347 347 346 344 346 342
312 313 310 311 310 310 310 311 311 312 311 312 310 310 309 311 328 327 323 320 321 315 314 326 327 329 347 351 350 352 350 347 348 350 351 349 348 348 347 347 346 344 345 344 340
312 313 310 311 311 310 310 311 311 311 311 312 310 310 308 321 320 323 323 318 314 312 315 326 329 330 346 350 349 353 352 349 348 344 349 349 349 349 348 346 344 343 344 343 341
314 313 311 312 312 313 313 311 311 310 310 310 310 310 308 318 325 324 325 320 315 313 319 328 330 329 333 346 348 351 350 353 349 353 352 351 349 347 346 346 345 343 342 342 341
313 312 311 312 314 316 317 318 314 313 313 312 310 309 309 314 321 322 326 325 314 313 321 328 330 329 329 333 348 350 354 354 352 352 354 348 351 349 346 347 346 345 343 343 342
311 312 311 312 314 315 315 315 317 317 316 314 312 311 312 322 319 321 325 324 317 317 323 326 327 327 326 333 345 351 353 357 355 352 351 350 354 347 346 346 346 345 344 343 342
311 311 312 312 314 315 316 316 317 316 318 315 319 326 323 320 319 319 326 324 321 319 322 326 327 326 326 328 340 354 356 356 357 352 352 351 353 348 346 345 345 345 344 343 342
311 310 311 312 314 315 315 317 320 321 318 321 316 322 323 322 321 320 325 325 324 323 322 323 326 324 324 327 345 353 354 355 355 347 346 353 352 349 347 344 344 344 344 343 341
311 311 311 312 313 315 316 318 324 325 320 325 325 323 322 323 323 324 324 324 325 324 322 326 323 324 326 331 337 350 353 349 349 343 343 352 352 350 347 348 347 344 344 342 341
310 311 311 312 313 315 315 318 322 322 322 324 324 324 319 321 323 323 322 322 324 321 322 321 321 322 325 339 347 346 347 349 345 341 340 343 352 348 346 346 345 346 344 343 341
309 310 310 312 314 316 318 321 322 322 323 325 325 321 319 319 320 324 322 321 320 319 320 320 322 324 324 344 344 347 349 348 347 342 339 343 353 350 347 345 344 343 345 345 341
308 310 311 312 318 322 322 323 322 322 323 327 322 321 321 320 320 321 323 322 322 320 320 319 322 324 324 340 343 349 345 344 344 344 348 344 357 352 349 346 344 344 344 345 343
308 309 310 312 316 319 322 322 323 323 329 324 323 323 323 321 322 322 324 323 322 322 322 319 320 321 324 328 343 348 344 343 341 343 348 349 354 352 347 347 346 344 343 345 346
308 309 311 313 315 322 322 322 322 325 330 324 323 323 322 322 323 324 324 323 323 322 323 321 323 322 324 329 340 343 343 343 343 345 350 349 351 354 348 344 343 343 343 344 346
309 309 311 313 318 321 322 323 325 331 329 325 323 323 322 323 323 324 324 324 322 323 323 324 322 321 324 333 342 343 345 350 349 346 347 345 349 348 348 346 342 343 343 343 345
308 309 313 317 319 321 322 324 332 332 328 322 322 322 323 325 325 324 324 322 323 322 322 323 322 322 327 326 339 345 339 342 349 353 352 349 354 351 344 345 346 344 343 344 344
309 312 315 320 320 319 321 328 332 328 322 320 321 324 326 326 326 325 325 322 322 321 322 325 326 326 326 326 327 331 336 335 341 343 349 351 347 344 345 345 345 344 343 343 345
309 313 319 321 322 323 324 325 327 323 320 319 319 322 327 327 327 326 326 326 326 325 322 322 326 327 328 326 327 327 331 331 338 348 350 352 351 353 343 344 343 342 342 342 343
313 320 325 324 323 323 324 326 328 321 319 319 319 320 325 328 327 328 329 327 326 325 326 326 325 325 328 326 326 325 327 328 335 336 345 352 350 343 344 342 343 342 342 342 340
322 324 324 322 322 323 323 325 325 321 320 319 319 319 321 327 326 329 329 328 326 325 327 325 325 326 328 328 326 326 325 324 326 332 336 336 353 346 345 343 342 344 345 343 341
322 324 326 325 322 321 327 326 322 319 320 318 318 318 322 326 328 329 327 326 326 325 325 324 326 326 327 327 328 325 324 324 322 322 327 335 349 341 343 343 343 347 346 344 342
323 327 327 326 325 322 325 326 325 321 321 320 320 319 320 325 325 329 327 325 325 325 323 324 323 325 327 328 327 330 326 324 324 322 324 326 347 344 339 335 351 353 353 354 345
322 326 327 327 323 322 324 323 323 320 320 319 320 321 323 324 326 326 324 324 326 326 324 323 324 325 327 329 328 329 329 326 323 324 328 344 347 344 344 348 348 348 350 350 350
321 325 328 329 327 323 319 320 321 321 320 319 321 321 323 325 327 326 326 326 327 325 326 323 326 332 332 333 333 333 330 332 329 325 341 348 346 340 343 346 346 345 345 347 348
326 326 327 329 328 323 321 323 322 320 319 319 320 321 323 325 324 323 324 324 327 327 325 327 330 331 335 331 333 335 331 332 335 335 335 343 342 336 336 336 338 344 344 346 346

GFSSW_850_thetae_108.txt.gz
Theta_e
311 312 312 309 309 310 310 310 311 311 311 312 310 308 311 316 317 316 315 313 313 314 316 319 320 341 338 336 347 350 349 354 353 343 342 347 349 345 346 348 343 346 345 345 346
311 311 311 310 310 310 310 310 311 311 311 311 311 309 309 314 317 318 318 314 315 318 316 322 339 336 334 339 349 351 349 349 347 348 349 348 348 344 347 347 346 343 345 346 345
312 312 310 311 310 310 310 311 311 311 312 311 312 309 309 312 315 324 322 316 316 318 316 320 328 328 332 343 352 349 351 348 345 345 346 349 347 345 346 348 343 344 347 346 345
312 313 310 311 311 310 310 310 311 311 311 311 312 310 310 311 326 326 324 320 319 316 315 315 327 324 327 348 351 352 349 348 348 347 350 351 349 347 347 347 340 342 345 347 346
313 312 311 312 312 313 312 310 310 310 311 311 311 310 310 313 318 323 323 322 318 319 315 314 324 326 329 346 351 351 347 348 347 348 347 349 350 348 347 346 341 342 345 346 346
312 311 311 312 314 315 317 316 313 312 311 311 310 310 310 315 326 325 325 324 317 313 313 319 328 329 329 341 349 352 351 349 347 347 348 350 351 347 347 342 343 344 345 342 342
310 311 311 312 314 314 314 315 316 315 315 314 312 310 309 313 320 328 324 325 322 314 314 326 329 326 328 325 341 352 353 350 347 350 349 350 351 347 345 344 344 344 343 340 340
311 310 311 312 314 314 315 315 316 316 317 315 313 320 316 321 320 320 321 322 323 313 314 325 327 324 324 326 329 352 350 356 350 348 344 352 354 347 344 344 344 342 342 341 341
311 311 311 312 313 315 315 315 318 319 316 318 315 320 321 322 321 320 320 324 324 318 321 325 321 323 325 325 330 353 352 353 358 346 350 351 352 347 345 344 343 343 342 341 341
310 311 310 312 312 315 315 318 322 323 321 322 321 320 322 322 322 321 319 325 323 322 319 318 320 320 320 322 329 347 352 350 349 345 347 345 351 349 346 344 344 344 343 342 342
309 310 310 312 311 314 316 318 321 323 320 321 322 323 323 321 323 322 324 324 323 323 319 322 321 322 322 322 326 348 349 349 346 342 345 345 345 348 347 345 344 343 341 342 343
309 309 310 312 311 314 316 318 321 321 320 322 323 323 322 322 320 323 323 323 323 321 321 320 320 321 322 324 332 347 348 348 343 342 343 344 345 343 347 346 345 343 341 341 343
309 308 310 312 313 315 320 322 322 322 320 323 325 325 323 320 319 320 322 321 319 321 319 318 320 321 322 325 346 345 349 346 346 342 342 342 345 344 347 346 344 344 344 340 342
311 308 309 312 316 322 322 321 321 321 318 322 323 320 320 319 319 320 321 321 320 318 317 316 319 320 321 326 342 347 344 345 345 344 348 342 354 352 349 347 345 345 345 343 340
316 308 309 312 314 318 322 322 322 322 326 325 322 323 322 320 321 322 322 322 320 321 319 318 319 318 320 321 342 346 342 342 342 343 345 346 349 351 348 349 347 344 344 344 344
320 310 309 311 314 322 321 322 322 320 329 323 322 321 322 321 321 322 322 323 322 322 320 320 323 318 318 335 342 340 341 342 341 342 346 346 348 350 350 348 346 344 344 344 345
318 310 309 311 319 321 321 322 321 326 327 323 321 321 320 320 322 322 322 322 321 322 320 320 322 325 341 343 341 340 339 348 350 347 347 345 348 347 346 344 343 343 344 344 345
315 308 310 314 318 320 320 320 328 329 328 321 317 319 321 323 324 323 321 322 320 319 319 320 322 321 328 341 343 341 335 342 348 348 351 347 352 350 343 341 342 341 342 343 344
312 310 313 317 320 319 320 322 326 327 319 316 316 319 322 322 325 323 322 319 321 318 320 321 322 322 323 333 339 340 337 333 340 341 348 349 348 345 342 345 343 342 342 342 343
309 312 316 319 320 320 318 321 324 324 318 315 317 318 324 323 325 324 326 326 325 324 320 318 320 321 325 324 332 334 332 333 332 345 350 347 346 348 341 343 344 345 342 343 342
315 318 319 320 321 321 318 318 322 324 318 317 317 316 321 325 325 326 326 327 326 325 323 320 319 323 325 325 322 322 326 325 329 336 346 351 349 339 339 339 343 343 343 343 342
317 320 323 324 320 318 316 319 324 323 318 316 316 315 319 323 324 327 328 327 325 325 322 322 319 324 325 323 322 321 322 321 323 327 334 339 347 341 339 338 341 342 342 342 341
315 321 324 325 317 315 316 320 322 322 318 317 317 316 322 324 325 327 326 326 324 324 322 320 319 324 325 324 324 324 324 321 317 318 329 336 345 339 341 339 339 341 342 342 341
317 318 326 326 324 318 317 318 322 321 319 318 318 318 320 322 322 326 325 325 324 325 325 322 317 324 325 324 324 326 326 325 318 319 320 325 340 343 336 346 347 342 342 344 343
316 319 326 324 323 323 319 319 321 319 318 318 318 320 319 324 324 325 324 323 324 325 325 321 321 322 324 331 331 331 331 332 329 323 323 326 341 342 339 347 348 349 348 346 343
311 323 328 326 327 323 318 319 319 317 317 316 318 323 322 323 322 321 324 324 324 321 324 320 325 328 332 329 330 333 332 335 336 335 347 346 347 342 346 346 347 349 349 348 349
324 323 325 326 326 325 318 318 319 316 318 318 318 318 321 324 323 322 322 323 323 324 321 326 325 327 332 328 331 334 331 333 335 334 335 344 341 338 340 344 344 346 348 348 348

GFSSW_850_thetae_111.txt.gz
Theta_e
311 312 310 310 310 310 310 310 310 311 311 311 312 309 309 313 316 317 316 314 313 317 317 320 334 341 340 337 342 348 349 353 352 344 348 347 347 347 347 346 345 345 343 344 344
312 312 310 310 310 310 310 310 310 311 311 311 311 310 309 310 315 318 318 315 313 315 316 321 327 340 334 336 350 349 349 350 348 347 348 348 346 347 346 344 344 344 344 345 345
312 312 310 311 310 310 309 310 310 311 311 311 311 311 310 310 315 323 320 318 314 317 316 321 330 330 329 340 351 348 352 346 346 346 345 346 348 346 345 345 344 345 345 346 346
312 311 311 311 313 314 312 310 310 310 311 311 311 310 310 310 323 324 323 319 315 318 316 317 322 327 325 335 350 352 349 348 345 346 346 348 350 347 345 346 342 343 345 346 346
311 311 311 312 313 315 316 315 312 311 310 310 310 310 310 310 317 323 324 320 318 316 315 315 323 326 327 331 350 350 349 348 348 348 348 348 349 348 346 344 342 344 346 345 345
310 311 311 311 313 314 314 315 315 314 315 314 312 310 310 311 325 325 325 324 320 316 315 315 324 326 327 327 349 350 348 349 349 348 347 349 349 349 347 342 343 345 346 345 345
311 310 311 311 313 314 314 315 315 315 316 316 313 313 314 312 325 326 324 324 321 318 313 315 326 326 326 324 335 351 352 349 348 348 349 349 351 349 346 343 343 344 345 345 345
311 311 310 312 312 314 314 315 316 318 316 316 315 316 317 317 318 320 321 322 323 314 315 313 318 325 324 325 324 352 351 354 348 349 347 350 355 347 346 342 343 344 343 345 345
309 310 310 311 311 314 314 316 319 322 320 318 320 318 319 322 322 320 320 321 324 318 315 319 318 320 323 323 325 344 351 352 352 346 347 350 353 347 344 342 343 344 340 343 344
309 309 310 311 311 313 314 318 320 323 322 321 323 321 321 322 322 321 319 320 322 322 317 317 317 318 317 319 325 342 351 348 350 348 347 347 350 346 344 343 344 343 340 342 343
309 308 309 310 311 313 317 317 319 321 320 321 321 321 322 322 321 321 322 322 320 321 319 319 318 319 321 321 326 347 349 349 346 344 345 345 346 345 345 344 342 341 341 341 343
310 308 309 310 311 314 317 320 319 319 319 322 322 322 323 323 323 320 323 322 322 321 318 318 319 319 321 323 330 347 348 347 344 342 343 345 345 341 342 346 345 341 341 341 341
318 310 309 311 312 315 320 320 320 320 319 322 324 324 323 322 322 320 321 322 320 320 319 318 319 320 322 326 346 344 346 345 346 343 342 343 347 346 344 346 345 344 341 341 340
321 318 308 312 314 319 320 321 320 321 317 321 324 323 321 322 319 319 320 321 319 318 318 317 317 319 319 321 341 344 344 345 344 344 347 343 351 348 345 346 346 345 342 342 340
322 321 310 310 315 319 320 321 322 322 324 324 321 321 321 319 320 321 321 321 319 320 319 318 319 320 318 319 339 343 342 343 342 341 344 347 347 349 347 347 346 346 344 341 341
321 320 313 310 313 318 321 322 322 321 329 325 321 321 321 319 320 321 320 322 321 320 319 319 321 319 319 333 336 339 340 340 339 341 347 347 347 347 350 346 344 345 344 343 343
322 318 311 309 317 322 320 322 321 325 325 319 319 319 319 319 320 320 320 320 320 320 320 320 322 339 338 340 339 337 335 338 342 343 348 343 346 343 343 346 345 345 344 344 344
323 314 309 311 315 318 319 319 327 327 327 322 316 319 321 323 322 321 321 320 320 320 319 321 321 338 338 338 340 338 332 335 342 345 347 346 350 347 342 342 344 343 344 344 346
321 309 310 314 317 318 320 322 325 326 324 316 315 319 321 321 324 321 322 322 320 319 321 319 321 321 335 337 338 340 337 331 338 338 343 347 347 343 340 339 341 342 342 343 344
312 313 314 318 320 319 317 319 321 323 320 315 316 317 321 322 324 323 324 325 325 324 319 321 320 319 322 335 336 333 331 336 333 345 349 345 347 346 344 344 344 341 341 343 343
309 320 316 318 319 321 317 317 320 322 322 316 314 315 317 322 324 324 326 326 324 324 321 320 316 319 323 323 331 324 330 324 328 334 343 346 345 339 338 337 344 342 341 343 344
314 316 322 318 320 313 316 316 321 322 321 316 313 315 320 323 325 326 326 326 324 324 323 320 317 322 322 322 321 321 323 322 326 326 335 338 341 340 337 336 342 344 341 342 343
309 317 322 321 318 315 314 318 320 320 319 316 317 316 321 322 324 325 324 324 324 324 323 321 318 322 324 324 323 323 325 320 315 316 328 334 335 340 339 337 342 342 342 343 343
312 316 323 321 320 316 317 318 319 321 320 316 316 316 321 322 321 323 324 323 323 324 327 321 317 322 324 325 324 329 331 329 315 317 318 324 325 340 340 344 338 341 342 342 343
311 315 322 321 322 323 321 322 325 322 317 317 320 321 318 323 323 323 323 320 322 323 323 321 321 320 321 329 329 332 334 335 332 332 319 321 321 337 343 345 343 342 341 341 342
309 321 325 325 325 324 319 321 323 322 315 316 320 322 319 321 318 319 321 321 323 320 320 319 326 326 329 329 330 330 331 334 334 336 335 341 343 341 345 347 347 345 344 342 341
321 320 321 324 324 325 324 322 321 316 317 317 318 320 321 321 322 320 321 321 321 322 320 323 324 326 329 326 328 330 329 331 333 336 337 339 339 337 337 340 343 347 348 346 343

GFSSW_850_thetae_114.txt.gz
Theta_e
312 310 310 310 310 309 310 310 310 311 311 311 311 311 309 310 314 316 316 314 313 317 319 320 328 338 345 341 343 347 346 350 352 341 349 346 347 346 346 344 344 345 342 342 344
312 310 310 311 310 310 309 310 310 310 311 311 311 311 310 310 313 317 318 315 313 317 317 326 331 340 338 336 351 348 350 350 349 347 347 347 346 346 345 345 344 343 343 344 345
311 310 311 311 313 313 312 309 310 310 310 311 311 311 310 310 315 323 321 319 313 315 316 325 329 337 333 338 345 347 351 347 346 346 345 346 347 345 344 344 343 344 343 344 344
310 310 311 312 313 314 315 314 312 310 310 310 310 310 311 311 320 323 321 318 314 317 316 323 330 329 326 330 348 350 348 347 342 342 346 347 349 345 343 343 340 342 342 343 345
310 310 311 311 313 313 314 314 314 314 314 313 311 310 310 310 317 323 323 317 314 317 316 320 326 326 326 327 349 349 349 348 348 347 347 347 348 348 343 344 341 343 343 344 345
311 310 310 311 312 313 314 315 315 315 315 315 313 311 310 311 324 324 324 321 318 317 315 314 321 327 327 326 343 348 348 349 349 348 348 348 348 348 346 343 343 344 344 345 344
310 310 310 311 311 313 314 315 316 317 316 316 315 314 315 313 323 324 324 324 321 318 316 315 324 327 326 324 331 348 351 348 349 348 349 347 349 349 345 344 344 345 345 345 344
309 309 310 310 311 313 314 315 316 319 319 318 318 318 316 316 320 321 321 322 323 315 316 313 316 321 324 323 330 351 349 352 348 349 348 346 352 349 347 345 345 345 345 345 345
308 308 309 310 311 312 314 315 317 320 322 321 321 320 319 321 320 321 320 320 321 316 316 317 319 320 322 320 322 338 349 352 350 345 348 347 351 347 345 343 344 345 345 345 345
309 308 308 309 311 312 314 317 319 321 322 320 322 320 321 322 321 321 319 319 321 319 316 316 317 317 316 317 325 344 349 348 350 347 345 342 344 346 345 342 343 344 344 344 344
314 309 308 309 311 313 317 320 319 320 320 321 321 321 321 321 321 319 318 320 320 319 317 318 316 318 321 320 326 344 348 348 346 345 346 343 343 345 341 345 342 342 341 343 345
320 317 308 309 311 314 320 320 319 318 318 322 321 321 322 322 322 320 320 321 320 320 317 316 319 318 320 321 327 345 346 346 344 343 342 344 344 343 341 342 345 342 339 341 343
322 321 312 310 312 315 320 319 319 318 318 321 323 323 323 322 321 320 322 321 320 320 318 318 320 319 321 333 341 344 343 344 345 343 341 343 345 345 343 342 344 345 340 340 340
323 322 319 310 313 318 319 320 320 321 316 320 323 322 322 322 318 318 319 321 317 319 316 318 316 318 319 320 336 343 340 342 344 344 345 343 349 347 344 345 344 345 341 340 341
324 322 322 310 312 318 317 320 321 320 321 323 321 320 320 319 320 319 319 320 318 318 316 317 319 319 318 317 332 334 341 340 342 340 343 346 347 347 344 344 343 345 343 340 340
323 323 320 312 311 316 320 320 321 320 327 325 320 320 320 319 319 320 320 321 320 318 318 318 319 319 319 331 333 338 338 337 336 338 343 345 346 345 346 341 342 343 344 341 340
322 324 320 312 313 319 320 321 320 323 323 321 316 317 319 319 319 319 319 319 318 319 318 318 320 335 337 338 336 336 331 336 340 341 343 342 344 343 345 343 342 344 345 342 340
323 323 314 309 311 317 318 319 326 325 326 319 314 319 320 320 321 320 319 319 319 318 317 318 319 338 336 337 338 335 330 333 337 340 342 344 345 344 339 342 342 344 344 344 341
322 314 309 310 314 316 320 321 323 325 324 315 314 315 318 320 322 322 321 320 321 317 318 319 319 321 335 336 336 338 337 330 335 336 341 344 344 341 340 342 343 344 344 344 344
319 311 312 313 316 318 317 319 320 321 321 314 315 316 319 320 323 322 324 324 324 322 318 321 321 319 321 336 336 334 333 336 332 340 345 342 344 344 343 341 345 344 343 343 344
310 317 315 317 318 320 315 315 318 321 320 314 314 314 317 322 324 324 325 324 323 323 319 319 316 320 321 327 335 325 332 327 328 333 339 341 339 337 340 340 344 344 344 344 343
310 314 317 317 318 311 315 315 319 321 319 314 313 314 319 322 324 323 324 324 324 323 322 319 317 321 323 320 320 322 328 324 328 327 333 333 336 338 336 336 341 341 342 343 343
311 316 320 319 316 314 314 316 319 319 319 315 315 314 320 321 322 324 323 323 323 323 322 318 317 323 324 324 325 323 328 319 314 317 331 332 330 339 336 338 341 342 341 341 342
310 313 321 319 317 316 317 318 319 321 319 316 314 320 319 321 320 321 323 322 322 323 325 320 316 322 324 325 325 331 331 332 313 316 318 326 321 339 340 339 340 341 341 342 343
310 312 319 319 319 321 319 322 324 325 317 317 321 317 319 322 322 321 322 320 320 321 321 317 319 321 321 327 330 331 331 333 331 331 319 328 337 343 342 344 339 341 342 342 343
309 320 322 323 323 323 319 322 322 321 317 315 320 320 318 318 318 317 319 320 321 319 319 318 322 326 329 327 329 330 330 333 334 338 336 336 342 342 342 345 345 341 341 342 343
318 318 319 321 321 322 322 322 326 323 316 317 320 320 319 318 319 319 319 319 320 321 320 323 324 324 326 326 327 330 329 331 332 335 336 340 336 337 339 340 342 345 341 341 343

GFSSW_850_thetae_117.txt.gz
Theta_e
311 310 310 311 310 310 309 310 310 310 311 311 310 311 311 310 312 315 316 314 313 320 319 319 325 336 345 342 346 346 352 352 348 347 349 347 347 345 346 343 344 346 343 342 338
310 310 310 311 313 313 311 309 310 310 310 311 311 311 311 310 312 316 317 315 313 316 319 322 331 340 338 337 350 350 353 351 348 346 348 347 346 347 344 344 346 346 343 341 343
310 310 311 312 313 314 314 313 311 310 310 310 311 311 311 310 316 322 320 318 313 315 318 325 334 337 336 339 347 348 352 345 346 347 346 347 347 347 343 345 345 344 346 344 344
310 310 310 311 313 313 313 314 314 314 313 312 310 310 311 312 323 322 321 319 313 315 317 328 332 333 332 337 346 350 347 346 343 341 345 347 348 346 344 343 342 342 345 345 345
310 310 310 311 312 313 313 314 314 314 314 314 312 311 311 311 317 322 321 317 314 317 316 325 331 329 333 329 343 348 349 347 345 342 341 346 347 347 344 342 344 345 346 346 346
310 310 310 310 311 313 313 315 316 316 316 315 315 314 312 313 323 323 319 316 315 317 316 320 329 330 328 328 338 350 350 350 349 348 346 348 347 348 344 344 345 344 345 345 346
308 309 310 310 310 312 313 315 315 317 319 318 317 318 314 315 324 324 323 322 319 317 316 315 324 327 327 327 330 349 352 350 349 348 347 347 348 349 346 345 346 345 346 346 345
308 308 309 310 310 311 314 315 316 318 321 320 320 317 315 322 322 323 322 323 322 316 314 314 323 322 325 323 346 350 349 353 349 348 349 346 352 347 346 345 346 346 346 346 346
310 309 308 309 310 311 314 316 317 320 321 320 321 320 320 319 320 321 320 320 321 314 314 314 316 321 322 326 335 348 348 354 351 346 348 347 350 346 347 346 343 346 346 346 346
317 313 309 309 310 312 316 320 319 320 321 320 321 320 321 321 321 320 320 319 321 315 315 317 319 324 324 326 334 345 350 352 353 348 344 349 349 344 345 346 345 345 346 346 345
320 320 312 309 310 314 320 321 320 320 320 321 321 321 321 321 321 318 319 319 318 318 320 318 325 330 325 325 330 336 345 349 348 346 347 344 345 345 343 345 344 345 345 345 345
323 322 319 309 311 316 320 320 319 318 319 321 321 321 322 321 321 320 319 321 320 324 320 322 326 322 323 324 334 338 342 349 346 344 345 345 344 345 343 344 344 343 343 344 345
324 323 322 310 312 317 320 319 319 318 320 321 322 322 323 321 321 320 320 321 322 323 322 324 323 321 323 331 335 339 336 346 347 345 342 344 346 345 345 343 345 344 343 342 344
323 323 323 312 313 318 319 320 319 320 323 324 323 323 323 322 320 319 321 321 319 323 321 323 319 321 322 322 328 331 339 343 346 347 349 344 353 347 346 346 344 345 345 343 343
318 324 322 317 312 317 318 319 321 320 324 326 322 320 319 319 320 318 318 320 321 320 321 323 320 322 322 322 325 327 342 344 345 345 346 347 352 348 345 347 347 344 343 345 342
320 321 323 321 311 315 319 319 321 326 324 325 321 321 320 319 319 319 319 320 319 320 320 322 319 321 322 333 326 340 341 341 342 344 350 345 348 349 349 345 344 343 341 343 344
322 321 323 321 312 315 320 320 326 326 324 321 318 318 321 322 321 321 321 322 323 323 323 322 322 330 336 339 338 340 341 341 344 349 345 346 350 348 345 342 342 341 341 343 343
322 322 322 313 310 318 318 324 329 325 326 319 317 320 323 323 323 321 321 322 321 322 323 324 323 336 337 336 338 339 334 330 334 341 345 346 351 346 341 341 339 339 341 344 343
322 320 310 309 310 316 320 327 328 327 325 318 317 321 323 323 324 326 325 323 324 322 324 323 324 324 338 338 337 340 340 334 341 343 347 348 346 342 342 342 343 341 343 346 342
322 311 313 310 312 316 322 324 326 323 323 316 318 319 322 323 326 326 327 326 326 324 321 324 327 323 328 338 337 339 336 340 343 340 340 344 347 347 346 345 343 343 344 345 343
318 317 315 314 313 319 322 323 322 321 322 319 317 318 319 324 326 327 327 326 325 325 322 322 323 326 323 333 334 337 338 337 339 342 339 341 338 340 343 344 345 344 344 345 344
310 319 315 316 320 315 321 320 319 322 319 316 315 316 320 324 327 326 326 326 324 324 325 323 324 327 327 324 323 333 335 336 337 337 341 342 336 342 340 340 344 345 344 344 344
317 314 316 317 321 321 318 319 319 320 321 316 317 317 323 325 324 325 324 323 323 324 325 322 324 326 327 327 327 330 334 328 325 330 337 336 333 340 340 340 343 345 345 344 344
313 318 319 317 317 320 321 322 322 320 321 319 317 322 324 325 324 323 325 323 322 323 325 321 323 326 326 329 329 336 335 336 329 329 332 332 332 334 344 346 342 343 343 344 344
310 314 318 323 321 320 321 324 324 325 320 317 320 321 323 324 324 325 324 323 322 322 323 324 326 325 325 330 331 332 333 337 333 337 326 330 341 345 345 346 345 342 343 343 343
312 320 320 323 322 325 322 326 326 326 324 318 321 321 323 324 324 323 323 324 326 323 325 325 327 328 330 329 328 332 330 335 338 340 341 341 343 341 342 345 344 342 343 343 344
313 317 318 320 323 325 326 324 324 326 323 318 320 322 322 322 321 319 319 320 323 325 326 329 331 330 328 328 328 331 330 330 335 337 339 343 342 339 342 343 344 343 343 344 344

GFSSW_850_thetae_120.txt.gz
Theta_e
310 310 311 312 313 312 310 309 310 310 310 311 311 311 311 311 312 315 315 316 313 319 321 324 326 334 340 344 351 350 354 352 349 348 350 347 347 346 345 343 342 344 340 342 343
310 310 311 313 313 314 313 311 310 310 310 310 311 311 311 311 312 315 316 315 313 319 323 324 330 338 343 345 351 351 354 354 350 348 350 347 346 347 344 343 345 344 343 344 343
310 310 310 312 313 313 314 313 313 312 311 310 310 311 311 311 319 322 320 316 313 317 320 324 333 341 344 345 350 348 354 350 348 347 348 349 347 347 344 345 345 344 344 343 343
310 310 310 310 312 313 313 314 314 314 314 314 312 310 311 314 326 322 320 319 313 315 320 329 337 341 345 346 348 351 346 345 348 347 345 345 348 347 344 345 344 342 344 344 345
310 310 310 310 311 312 314 315 316 316 315 314 314 311 311 318 319 323 318 318 314 316 319 331 338 342 344 339 342 348 347 347 346 344 345 345 349 348 345 345 342 343 345 345 344
308 309 309 310 310 311 313 315 316 317 318 318 318 316 315 321 323 320 316 315 318 318 317 328 337 339 337 332 342 348 350 351 349 349 346 345 348 349 346 343 343 344 345 345 344
308 308 308 309 310 310 313 315 316 317 319 320 320 316 317 321 324 322 320 320 318 318 318 320 330 338 335 332 343 350 353 352 351 349 348 348 351 350 346 345 345 344 344 344 345
311 309 308 308 310 310 313 315 317 319 320 321 320 316 321 323 324 323 323 324 319 318 317 318 324 335 332 328 345 350 348 353 352 350 349 350 353 349 348 347 345 344 343 344 346
318 315 311 308 310 310 313 318 319 320 321 320 321 321 321 318 320 320 322 323 319 317 315 316 325 332 331 333 339 343 344 349 354 350 349 349 353 348 348 348 347 345 344 344 346
320 321 317 309 310 311 318 320 320 320 321 320 321 323 322 323 322 320 322 321 318 316 317 318 324 331 335 335 335 338 342 345 349 352 351 349 351 346 348 349 349 347 344 342 345
323 322 321 312 310 315 321 321 323 324 322 324 324 323 322 323 320 320 321 320 319 317 320 321 325 328 332 334 333 335 338 341 351 349 351 352 351 349 346 346 349 347 345 343 343
323 324 322 314 311 318 320 322 320 319 324 323 322 322 322 322 322 320 321 323 322 322 322 323 324 328 329 329 333 335 336 341 349 348 349 349 350 346 348 345 348 348 347 344 343
318 323 323 317 312 318 320 320 320 319 325 325 324 324 324 323 321 321 323 323 324 325 322 323 326 326 328 329 331 333 335 336 344 348 347 348 351 349 347 346 346 347 348 344 343
318 320 323 318 313 318 319 320 320 321 328 325 325 324 324 324 322 321 322 323 323 324 324 325 324 325 327 328 329 331 333 334 346 346 348 347 346 351 350 351 347 346 347 344 342
321 318 323 322 315 316 319 320 321 320 328 326 324 322 323 323 322 321 321 322 324 324 324 325 324 324 324 325 325 327 332 335 344 345 345 348 350 343 348 353 350 347 347 344 342
320 321 319 323 316 314 318 320 321 328 327 325 323 323 323 323 323 321 321 322 323 324 324 325 322 324 324 326 325 330 334 341 344 343 344 340 347 345 352 349 347 344 345 345 345
315 322 320 322 317 312 318 321 329 328 325 323 323 323 325 325 324 324 324 324 325 325 324 324 324 323 324 328 328 333 334 337 339 341 339 345 345 345 344 345 345 345 345 346 346
314 322 322 322 317 313 318 326 330 326 325 322 323 324 325 326 326 325 325 326 325 325 326 325 326 325 328 329 331 332 331 332 335 334 336 346 345 344 344 342 342 345 345 346 346
315 322 316 313 311 317 321 329 329 326 324 322 323 325 326 326 327 327 326 326 327 326 326 326 325 327 332 332 333 333 337 331 332 333 336 336 342 343 343 342 342 342 341 341 342
317 317 318 310 309 315 324 327 329 326 324 321 323 323 324 325 326 325 327 327 328 327 327 327 327 327 330 336 336 338 337 336 333 336 337 335 340 341 342 344 344 344 342 342 343
320 319 317 311 310 320 325 327 328 325 323 321 320 320 321 322 323 325 327 328 327 327 326 328 327 328 328 333 331 337 339 337 336 337 336 339 339 339 341 344 346 344 344 343 346
315 319 316 312 319 321 324 326 323 324 323 321 320 321 321 322 324 324 326 328 326 325 325 326 326 328 328 328 328 328 334 334 336 335 338 337 343 341 342 343 343 344 343 344 346
321 317 316 317 322 323 323 324 324 325 323 321 320 321 322 323 323 323 323 325 325 324 325 325 324 327 327 328 329 330 333 334 333 335 338 337 338 339 343 342 344 345 347 345 346
318 320 320 318 321 323 322 324 325 323 324 322 321 321 323 324 324 323 323 324 324 324 325 324 322 322 325 327 330 335 335 336 335 334 332 333 335 333 345 347 345 345 347 346 345
316 317 323 321 321 322 322 321 324 326 324 324 324 322 323 324 324 324 323 324 324 323 325 326 325 324 324 324 329 332 333 335 336 334 335 331 334 337 345 345 348 346 346 346 346
317 320 323 326 325 322 320 324 324 326 327 324 324 324 324 324 323 323 324 325 324 326 327 327 328 326 326 325 328 330 330 331 335 337 338 339 338 344 343 344 349 346 346 345 346
314 316 320 322 327 326 323 324 324 324 326 326 323 324 323 323 323 323 323 323 324 325 326 328 329 330 329 326 328 329 328 330 331 333 335 337 340 341 345 344 344 347 347 347 347

GFSSW_850_thetae_123.txt.gz
Theta_e
310 310 311 313 313 313 312 310 309 310 310 311 311 311 311 312 312 315 320 319 318 317 321 327 327 335 342 347 348 350 356 356 352 350 350 347 347 346 343 342 342 342 342 343 341
310 310 311 312 313 313 313 313 311 310 310 310 310 311 311 311 312 320 319 316 313 319 324 326 330 338 343 345 351 351 356 354 352 348 348 347 346 346 344 343 343 343 344 343 342
310 310 310 311 312 313 313 314 314 314 314 313 311 311 311 311 323 327 321 316 313 319 326 326 330 340 344 347 350 350 354 351 347 347 349 349 347 346 344 345 343 343 344 342 342
310 310 310 310 311 312 313 315 315 315 314 314 312 311 311 314 330 329 320 318 314 321 321 326 332 341 344 347 349 352 349 348 348 347 344 342 346 347 344 346 343 342 343 343 343
309 309 309 310 310 311 313 315 316 317 318 318 317 312 312 325 324 325 320 318 314 321 321 329 337 341 344 343 345 350 348 346 349 347 341 341 344 349 346 345 342 343 343 343 345
309 308 308 309 310 310 312 316 316 317 318 319 319 315 320 324 326 326 322 320 319 319 320 329 337 341 341 338 344 348 348 350 349 347 347 343 346 351 346 344 342 343 343 343 344
312 311 309 309 309 310 312 316 317 318 319 320 319 314 323 327 327 323 321 320 318 319 320 325 334 339 339 336 344 347 350 353 351 351 351 345 350 352 347 344 345 343 343 343 343
318 317 314 310 309 310 312 317 319 320 321 320 315 321 324 324 326 324 324 323 321 320 321 321 329 336 336 334 343 345 348 353 352 350 349 350 355 351 349 347 346 344 342 342 343
320 321 320 313 309 310 314 319 320 320 321 321 323 327 323 321 321 323 325 326 322 319 318 318 326 333 336 334 339 342 345 348 354 351 351 351 353 348 348 348 346 345 342 342 345
323 323 322 316 310 312 319 321 321 320 321 321 321 328 322 325 323 323 323 324 320 319 318 319 327 334 335 336 337 339 340 340 348 354 353 352 352 352 347 349 349 345 345 341 344
321 323 324 320 310 316 321 323 328 328 327 327 326 326 324 324 322 322 323 322 322 319 322 321 324 329 331 335 334 336 339 339 347 351 352 352 351 352 347 346 348 348 347 341 343
317 319 324 322 311 318 322 325 323 322 326 323 323 323 322 323 323 322 322 323 323 322 322 324 324 327 329 333 333 334 335 338 346 349 350 348 351 350 350 346 344 348 348 343 342
316 317 323 323 311 318 322 324 322 322 327 324 325 325 324 323 323 323 322 324 325 326 325 325 326 328 330 330 330 332 335 336 339 348 348 348 348 350 349 350 346 347 348 345 342
314 319 319 322 314 320 322 322 321 322 330 326 326 326 325 326 324 322 323 324 325 326 326 325 327 328 328 329 329 331 332 333 334 344 345 348 346 351 351 350 351 346 349 347 344
314 318 319 323 318 319 322 320 321 324 334 327 327 325 325 326 324 324 322 323 326 324 326 326 327 326 326 328 328 329 331 331 334 339 341 343 349 342 348 354 352 348 346 350 344
316 314 320 323 323 317 319 320 323 328 331 328 325 325 326 325 325 324 323 323 325 325 325 327 326 326 326 326 326 327 329 333 337 339 343 339 342 342 349 352 351 348 348 347 345
318 314 319 320 324 317 318 322 328 329 329 327 326 326 326 327 326 326 326 325 327 327 327 325 326 325 324 326 328 327 331 335 338 338 339 340 342 340 342 349 346 349 348 348 348
317 315 320 320 322 319 319 326 330 330 329 326 325 325 326 327 327 327 327 328 326 326 328 328 327 326 326 325 330 329 330 334 338 337 347 342 341 343 342 343 342 344 346 348 348
317 321 321 321 322 317 320 326 329 331 328 325 325 326 327 326 328 327 327 329 329 328 329 329 328 327 329 328 328 332 333 331 333 333 334 342 341 340 341 338 342 343 345 345 346
317 321 322 320 318 317 322 324 328 329 327 325 325 327 328 328 326 326 329 328 328 328 328 330 329 328 328 329 332 332 338 336 332 335 338 336 337 343 341 337 340 344 345 346 346
317 322 322 318 315 318 323 324 327 329 325 325 324 325 325 325 326 328 327 329 328 329 328 329 329 330 329 331 332 333 333 335 337 339 340 340 344 341 339 340 345 344 342 343 343
321 322 320 317 316 318 322 325 327 329 324 325 324 324 323 324 325 325 327 329 327 327 327 328 328 330 330 330 330 333 336 336 335 338 338 338 343 339 339 336 343 343 342 343 344
322 323 321 316 318 320 322 324 327 329 326 324 323 323 323 324 325 324 325 327 326 325 326 327 327 326 328 327 330 329 329 329 335 336 340 341 341 338 341 335 338 344 349 345 346
321 323 322 317 319 323 325 325 327 326 327 324 323 323 324 325 325 325 323 324 323 322 323 323 322 323 323 325 328 331 332 334 335 335 336 337 336 338 337 342 338 340 347 346 346
322 322 324 323 320 321 325 325 325 327 326 324 324 323 324 326 326 326 324 324 324 323 322 324 325 325 324 323 324 325 333 332 332 337 333 334 336 338 334 340 346 345 347 348 341
321 323 323 323 326 321 320 324 323 326 327 326 326 325 324 325 327 326 326 326 325 327 327 327 328 327 327 326 325 324 328 332 333 333 335 335 335 342 345 348 350 346 347 347 347
319 318 320 321 324 327 325 323 324 324 326 327 326 326 326 325 325 324 324 324 325 325 326 328 328 329 330 327 328 329 327 328 331 330 334 336 336 343 346 346 345 348 349 346 347

GFSSW_850_thetae_126.txt.gz
Theta_e
310 310 311 313 313 313 313 312 310 310 310 310 311 311 311 312 313 314 318 321 321 319 317 328 328 331 338 344 348 350 357 356 355 353 353 346 347 342 341 340 343 343 342 341 340
310 310 310 311 312 313 313 313 314 313 312 311 310 311 311 312 313 317 322 320 319 316 320 330 328 335 341 346 348 352 354 353 351 348 342 340 347 342 342 341 345 344 343 341 340
310 310 310 310 311 312 313 314 314 314 313 313 312 311 311 311 320 327 323 319 314 317 324 329 328 337 342 346 349 351 355 353 350 346 343 347 348 348 344 344 343 345 342 341 341
309 309 310 310 310 311 313 316 316 316 317 317 314 311 311 312 332 332 323 316 314 319 326 325 328 335 342 348 347 351 350 349 348 346 345 338 343 348 345 345 345 343 342 341 342
309 309 309 309 310 310 313 316 317 317 317 318 318 313 312 326 329 327 320 317 314 319 325 326 331 338 342 345 348 350 350 347 349 346 342 340 341 347 347 345 343 342 343 341 343
313 312 310 309 309 310 311 316 317 317 318 319 320 316 315 329 327 325 320 317 317 321 322 326 334 339 341 342 343 349 348 350 349 347 344 340 347 344 347 342 341 342 343 344 344
318 317 315 312 309 310 311 316 317 319 319 320 318 315 325 327 327 325 322 322 322 320 321 322 332 339 338 338 342 348 351 351 351 351 350 345 350 349 348 347 341 342 343 345 344
320 320 320 316 310 310 311 317 319 320 321 319 314 316 330 326 327 324 325 323 321 320 321 322 327 334 339 338 338 343 349 354 353 351 350 349 354 343 343 349 343 342 343 343 343
323 323 323 321 311 311 314 318 320 320 321 319 322 325 330 321 324 326 326 327 324 321 321 321 322 330 337 337 335 343 346 348 353 351 352 349 349 347 344 350 346 344 343 343 343
319 322 323 323 311 311 318 321 321 320 321 321 324 329 326 324 323 323 324 325 324 321 320 319 322 329 333 337 336 341 343 345 353 354 352 351 352 343 346 349 349 347 347 344 343
314 317 322 323 312 314 321 325 329 325 329 330 328 328 325 325 324 323 324 324 324 321 321 321 324 329 333 336 336 336 340 347 352 349 349 352 352 353 348 347 351 346 346 346 345
314 316 318 324 313 315 322 325 325 325 326 329 324 325 325 325 325 323 324 323 324 322 323 324 323 325 330 331 334 335 336 336 345 346 344 344 349 351 352 347 346 339 340 347 345
316 314 317 323 313 315 321 324 324 324 327 327 324 325 324 323 325 325 323 324 325 324 324 324 326 326 327 330 333 334 333 336 342 348 346 344 346 345 351 351 347 347 347 345 347
319 315 318 323 317 324 322 325 323 325 329 329 327 327 326 325 325 324 323 325 327 326 327 326 327 328 329 331 330 330 332 333 335 337 341 346 348 345 349 355 351 346 348 341 348
317 318 315 318 322 322 324 323 323 326 335 328 328 327 327 328 326 324 324 326 327 326 327 326 327 327 329 329 329 330 331 332 333 334 336 345 350 343 348 351 352 349 348 349 348
319 317 317 321 324 318 321 321 323 328 332 329 328 326 327 326 326 325 323 324 326 327 326 327 328 328 327 327 328 328 328 329 333 335 339 339 341 339 346 352 353 349 348 348 348
319 319 317 315 322 324 319 321 326 330 331 330 327 327 327 327 327 326 325 325 327 327 327 326 327 327 326 327 327 326 327 331 334 337 339 342 338 343 347 342 349 351 348 348 345
319 319 317 316 319 324 322 324 328 330 329 328 327 327 327 329 328 327 328 328 327 328 329 329 328 327 326 325 327 329 327 330 337 339 340 342 346 347 346 345 345 344 345 347 348
320 320 321 321 319 324 320 324 327 330 331 329 326 327 326 329 328 328 328 329 329 328 329 331 329 328 327 327 326 329 332 330 331 333 334 337 344 345 340 338 336 343 348 348 348
320 318 321 324 323 323 320 321 325 328 330 329 326 326 328 329 327 327 329 329 329 329 329 330 331 329 329 329 329 328 333 337 333 337 336 335 345 348 342 342 345 344 345 348 349
320 324 324 323 321 322 320 320 323 324 329 328 326 327 328 329 329 329 328 330 328 330 328 329 330 330 329 330 331 332 331 334 334 338 340 341 348 341 340 340 347 345 344 346 346
322 326 324 321 320 321 322 320 322 325 330 328 326 326 326 326 326 326 328 329 329 328 329 328 328 330 331 331 331 330 332 335 335 336 337 340 341 339 340 338 345 338 340 346 345
323 324 324 321 321 320 321 321 322 325 329 328 326 325 325 325 325 327 327 329 328 328 327 327 328 327 326 328 330 330 330 331 333 334 338 344 343 338 338 338 338 345 344 339 340
323 326 324 323 320 319 321 322 322 324 329 328 325 324 325 324 326 327 325 326 325 324 322 323 326 325 325 326 325 329 331 332 333 335 336 338 338 339 340 337 338 341 345 341 343
324 324 323 325 325 322 321 323 326 325 326 328 326 325 324 325 327 326 326 326 325 322 322 322 323 323 324 325 325 324 325 326 333 332 334 336 337 337 338 337 342 344 349 346 345
324 323 323 323 323 325 322 323 326 326 327 328 328 326 325 325 327 328 328 327 326 326 327 325 326 327 327 326 325 325 326 325 329 331 331 332 337 341 335 331 336 345 348 348 346
322 323 321 321 321 324 327 323 323 325 325 327 327 327 326 325 325 327 327 326 326 327 327 327 328 329 330 328 329 329 328 330 332 332 331 333 334 341 331 329 329 344 344 345 341

GFSSW_850_thetae_129.txt.gz
Theta_e
310 310 310 312 312 313 313 313 313 312 311 310 310 311 311 312 313 314 314 318 320 320 318 320 328 329 331 334 342 348 351 352 353 353 352 343 346 342 343 344 343 342 340 340 341
310 310 310 310 311 312 313 314 314 313 313 313 311 311 311 311 312 314 315 321 321 320 317 327 330 329 332 338 345 351 348 350 350 348 344 340 348 347 344 344 343 342 341 340 340
309 309 310 310 310 312 313 315 315 315 316 315 313 311 311 311 317 326 321 320 319 315 318 327 328 328 332 344 346 350 352 346 347 347 340 343 344 346 346 346 343 341 340 341 340
309 309 309 309 310 310 313 316 316 317 317 318 317 313 312 311 333 331 328 324 318 315 321 326 325 327 331 348 342 350 351 347 349 346 343 340 344 346 342 345 344 341 340 340 341
313 312 311 310 309 310 311 315 317 317 317 318 319 317 313 324 326 328 319 318 315 316 320 325 325 328 335 346 347 347 347 350 347 345 339 341 342 345 348 343 343 341 341 340 341
318 317 316 313 310 310 310 314 317 317 318 319 319 318 314 326 328 327 319 316 314 318 323 323 324 329 337 343 350 349 348 350 348 343 341 342 347 345 347 346 345 342 341 341 342
321 320 320 319 313 310 310 315 317 319 319 320 318 316 316 328 328 326 319 319 320 319 321 321 322 326 334 338 347 347 352 352 350 347 346 344 350 348 346 346 346 342 342 342 342
322 322 322 322 317 311 311 315 318 319 320 319 315 314 329 326 327 325 323 322 321 320 320 321 322 325 331 336 342 349 348 354 341 344 350 346 353 345 344 342 343 347 343 343 343
314 318 321 323 320 311 312 316 320 320 320 320 321 326 331 325 325 326 325 324 323 321 321 322 321 322 326 332 335 334 345 355 351 348 352 349 350 345 338 342 346 346 345 343 343
314 314 317 322 323 311 315 321 321 320 320 320 323 327 330 323 322 324 326 326 326 321 321 320 319 318 323 327 333 334 343 349 353 350 351 350 349 344 342 340 347 342 344 344 342
317 314 315 320 323 312 320 324 327 326 320 327 330 327 326 325 324 323 323 324 325 323 319 320 316 319 322 326 333 337 345 353 354 353 352 350 351 347 345 346 348 337 344 344 343
316 318 314 316 323 312 318 323 326 324 324 325 327 328 326 325 324 323 324 323 324 322 320 319 316 320 325 327 331 332 335 351 352 350 345 351 352 350 344 345 348 345 341 341 345
318 316 317 315 321 312 319 321 324 324 325 326 328 326 324 323 323 324 324 324 323 322 321 319 320 322 323 323 327 332 333 336 350 347 344 345 343 350 349 345 349 345 337 343 345
319 318 317 315 317 324 323 324 324 323 325 329 325 325 324 324 324 324 323 324 325 324 323 320 322 325 323 326 329 332 330 331 350 347 338 341 347 342 350 351 347 346 343 341 341
319 319 318 316 317 322 323 323 322 323 330 329 326 327 326 325 324 325 323 323 324 325 326 325 324 326 327 328 329 327 328 330 333 332 333 342 345 342 349 354 350 346 347 346 344
318 319 319 318 316 321 322 320 321 325 331 328 327 326 326 327 326 324 323 324 324 324 325 324 326 326 326 327 326 327 326 327 328 329 333 332 344 341 350 355 352 346 349 346 345
319 319 319 319 316 324 323 322 322 327 330 329 326 325 325 326 325 324 323 322 322 324 325 325 325 326 327 324 325 325 322 323 328 328 334 333 341 348 343 351 351 348 347 347 346
319 319 319 319 316 317 324 321 325 326 326 329 327 325 325 325 325 325 324 322 323 324 325 325 324 324 325 324 326 324 321 321 331 338 337 335 347 347 345 346 350 350 349 347 347
320 320 319 320 319 321 325 322 324 326 329 330 325 325 325 326 327 326 325 326 326 324 328 329 329 325 325 324 323 322 326 325 324 325 328 336 343 341 339 341 344 347 345 345 349
320 321 320 320 325 323 325 320 321 323 325 326 326 324 326 326 326 327 327 327 329 328 326 328 329 325 325 327 326 323 327 332 331 331 337 346 349 346 341 346 344 345 345 346 348
320 324 325 321 325 323 325 321 320 320 320 322 325 326 325 327 326 325 326 328 329 328 328 327 327 328 327 327 327 326 327 329 330 331 337 338 345 338 340 339 342 345 346 348 349
320 324 324 323 323 323 324 323 321 320 320 321 325 326 325 327 328 328 330 329 328 328 328 326 324 326 328 326 328 328 328 328 330 333 333 334 339 337 338 342 341 343 341 340 342
320 323 324 323 321 321 321 322 322 321 321 321 327 326 324 325 326 326 329 329 328 325 326 324 325 325 324 323 324 329 329 333 330 329 336 335 338 336 335 337 340 343 346 345 342
320 326 325 324 323 323 322 320 320 321 321 322 323 326 324 325 325 327 328 327 326 323 322 323 322 324 322 322 320 323 323 326 329 329 331 334 336 336 336 338 344 346 342 339 342
322 325 324 325 325 324 324 326 324 321 324 324 328 326 325 325 325 326 327 324 324 322 322 319 321 323 320 321 324 324 324 324 323 331 331 330 333 336 338 335 336 345 344 345 344
323 324 324 323 323 323 322 326 327 322 323 325 328 328 325 327 325 327 325 327 326 323 324 320 321 325 327 325 325 324 324 323 324 328 329 330 337 339 334 333 333 343 342 344 346
321 321 322 323 323 323 323 323 325 325 328 327 326 327 327 325 325 326 328 328 326 324 325 326 325 330 328 328 326 326 330 329 329 330 331 330 331 337 334 333 337 341 341 342 342

GFSSW_850_thetae_132.txt.gz
Theta_e
310 310 310 310 311 312 312 313 313 313 312 312 311 311 311 311 312 314 314 315 318 318 319 319 323 331 327 335 343 339 346 351 349 349 352 342 347 344 343 341 339 340 340 340 341
309 309 309 309 310 311 313 315 315 314 314 314 312 311 311 311 312 315 316 316 319 320 318 320 329 329 329 342 348 350 346 345 346 347 344 343 346 347 342 341 340 341 340 342 342
310 309 309 309 309 310 312 315 316 316 316 317 317 314 312 311 316 325 317 316 319 318 316 320 327 326 328 335 347 349 349 346 348 346 345 342 345 346 344 344 340 341 342 342 342
314 313 312 311 310 310 310 314 316 316 316 316 317 317 313 312 333 332 324 324 322 316 316 324 326 325 328 347 346 351 349 345 348 348 342 342 344 347 344 343 341 340 341 340 342
318 318 317 315 312 310 310 312 316 317 316 317 318 318 315 318 324 329 327 322 320 315 318 325 325 325 327 344 345 347 350 345 347 347 343 341 344 346 347 344 340 340 340 340 341
322 321 320 320 316 311 310 311 315 317 318 319 319 318 314 325 328 327 325 317 315 315 318 323 324 322 323 343 349 346 349 346 344 340 340 342 346 344 347 344 341 339 340 340 340
316 320 321 322 320 313 310 311 315 317 319 319 317 315 313 326 328 326 317 317 316 317 321 320 320 320 323 335 348 348 350 349 345 344 344 345 350 349 344 346 345 341 340 340 341
314 314 318 321 322 316 311 312 316 318 319 318 315 315 319 327 327 326 323 322 321 321 320 320 320 321 327 329 345 349 349 352 345 342 349 344 347 348 343 343 343 345 343 341 342
317 315 314 317 322 318 311 315 320 320 319 319 320 329 329 329 325 326 325 324 322 321 320 321 321 321 323 326 329 342 349 352 346 342 349 347 347 345 341 343 343 346 343 342 343
315 317 315 314 319 319 313 320 323 321 319 320 320 326 328 325 323 323 325 325 326 323 321 320 319 315 316 321 331 332 349 352 352 349 350 349 347 345 341 340 344 344 345 343 343
318 316 316 314 316 321 317 323 325 326 322 323 324 325 326 326 322 323 323 324 324 323 317 319 313 314 317 319 325 330 341 350 348 348 354 351 348 346 342 340 342 343 343 344 343
319 318 316 316 315 321 315 323 324 324 322 323 324 324 325 326 323 323 323 323 323 321 319 316 313 314 317 320 322 324 344 355 354 353 349 350 350 346 343 341 340 344 343 344 342
320 319 318 315 316 314 314 321 322 322 321 324 325 326 326 326 324 324 323 323 321 320 320 315 317 317 318 318 320 321 334 353 355 354 350 349 347 350 344 342 340 346 343 341 344
319 319 319 318 317 318 321 323 321 321 319 323 326 327 327 323 323 323 324 323 321 320 319 317 320 320 319 318 321 329 329 347 351 349 346 339 341 340 349 344 343 346 346 341 344
319 318 319 319 317 317 321 320 321 322 327 328 326 325 324 323 324 323 324 323 321 320 323 322 322 322 322 325 327 327 327 335 347 335 329 342 342 339 344 349 345 345 347 342 342
318 318 318 320 319 317 321 320 322 321 327 327 326 324 322 323 324 323 322 323 323 322 321 321 324 323 323 326 326 324 322 320 322 324 327 327 340 337 351 351 348 346 347 346 341
320 318 318 318 319 318 322 321 317 323 325 326 324 323 322 323 323 321 321 320 320 322 321 322 323 324 325 324 322 319 317 319 323 324 327 326 337 333 340 347 348 347 345 345 344
320 318 319 318 320 318 320 315 320 323 322 323 324 322 322 322 322 321 320 319 319 320 319 322 322 323 324 322 322 322 318 319 324 330 325 329 342 345 344 348 349 348 347 346 347
319 318 320 320 319 318 323 319 318 321 324 321 321 321 321 322 322 321 320 319 320 318 321 323 325 322 323 322 320 321 322 317 319 321 323 331 340 337 341 342 348 349 347 346 347
318 318 323 321 321 320 320 319 317 320 318 317 320 321 321 321 323 321 320 322 323 322 322 324 325 323 323 323 322 319 320 326 324 330 335 345 346 341 339 345 345 345 346 348 346
318 320 323 321 322 323 321 319 320 321 320 317 317 317 318 320 322 321 322 324 325 325 323 323 322 324 324 324 323 323 323 325 323 326 333 336 337 336 338 337 342 344 346 345 344
319 318 322 323 321 319 318 320 321 321 321 320 317 317 319 321 323 322 327 327 327 325 324 323 317 322 325 323 323 322 322 321 324 327 328 330 331 334 336 340 340 341 346 348 346
319 321 324 323 317 315 315 318 320 320 320 319 319 319 319 320 324 327 327 325 325 323 323 322 319 321 322 318 316 320 325 327 323 323 329 330 332 331 339 339 339 341 345 343 345
319 319 323 323 322 321 320 321 322 324 322 320 319 320 319 321 322 326 326 325 323 323 322 321 316 319 320 319 317 319 319 321 323 325 325 329 334 334 337 340 345 344 343 342 339
321 321 322 319 322 319 320 320 323 325 323 321 320 325 324 321 322 324 323 321 321 323 318 315 317 318 317 318 320 322 322 322 321 321 328 327 330 332 333 334 343 344 343 345 341
321 321 322 322 322 319 319 320 322 323 322 325 324 326 327 321 318 322 321 320 321 321 319 313 316 318 322 322 323 324 327 326 327 328 328 328 334 334 334 333 338 339 343 344 344
320 319 321 321 319 319 320 321 322 322 322 322 324 328 327 324 324 324 324 323 320 318 320 317 316 322 325 324 324 323 328 328 327 326 328 327 326 336 335 333 339 340 340 341 339